GFSSE_925_temp_072.txt.gz
Temp
22 19 19 19 20 20 20 20 21 21 20 20 20 20 20 19 19 19 18 18 18 18 17 17 17 17 17 18 18 18 18 18 18 17 15 15 15 15 16 16 15 15 15
20 19 20 19 19 20 20 20 20 20 20 20 20 20 19 19 18 18 18 18 18 17 17 17 16 16 18 18 18 18 18 17 18 18 16 15 15 15 15 15 15 15 15
15 19 19 19 19 19 19 20 19 19 19 20 19 19 19 18 18 18 18 18 18 17 17 16 16 18 18 18 19 18 18 18 18 18 17 16 14 15 14 14 14 14 15
18 19 19 19 19 18 18 18 18 18 19 19 19 18 18 18 17 17 18 18 17 17 17 16 16 18 18 18 19 19 18 18 18 18 17 16 15 14 14 14 13 14 14
20 20 19 19 19 18 18 18 18 18 19 19 18 18 18 17 17 17 17 18 17 16 16 16 18 18 18 18 18 19 19 19 18 18 16 15 14 13 13 13 13 13 13
20 21 20 19 19 18 18 18 17 18 18 18 18 18 18 18 17 17 17 17 17 16 16 17 18 18 18 18 18 18 19 20 18 16 15 14 13 13 13 12 12 12 12
20 20 20 19 18 18 18 18 17 17 18 17 17 17 17 17 18 17 17 17 17 17 17 18 17 17 17 18 18 18 19 20 18 17 15 13 13 13 13 12 12 12 12
18 18 18 19 19 18 17 17 16 17 17 17 17 17 17 17 17 17 17 17 17 18 18 18 17 17 17 17 18 18 18 19 19 17 15 13 13 13 12 12 12 12 12
17 18 17 15 17 17 16 16 16 17 17 17 17 17 17 17 17 17 17 17 18 18 18 17 17 17 17 17 18 18 18 19 19 17 14 13 13 13 12 12 12 11 11
17 16 18 15 16 15 15 16 16 16 16 16 17 17 17 17 17 17 17 18 18 18 17 17 17 17 17 17 17 17 18 19 18 16 15 13 13 12 12 12 11 11 11
16 15 15 15 15 16 15 16 16 16 16 16 16 17 17 17 17 16 17 17 17 17 17 17 17 17 17 17 17 17 17 18 17 16 15 13 12 12 12 11 11 11 11
13 14 15 14 13 13 14 14 15 15 16 16 16 17 17 17 17 17 17 17 17 17 17 17 17 17 17 17 17 17 17 17 17 16 14 13 12 12 11 11 11 11 11
12 12 14 13 12 13 13 14 15 15 16 16 17 17 17 17 17 17 16 16 16 16 16 17 17 16 16 16 16 16 16 17 16 15 14 13 12 12 11 11 11 10 10
12 11 11 11 11 11 13 12 13 14 15 17 17 17 16 16 16 16 15 16 16 16 16 17 16 15 16 16 16 15 16 16 16 15 14 13 13 12 11 11 11 10 10
12 11 11 12 12 12 12 13 14 15 16 16 16 16 16 17 16 16 16 16 16 16 16 16 16 15 15 15 15 15 15 15 15 14 14 14 13 12 12 12 11 11 10
12 12 11 11 11 12 12 13 13 14 16 17 17 16 17 17 17 17 16 17 17 17 16 16 15 15 15 15 15 15 15 15 15 14 14 14 13 12 11 11 10 10 10
11 11 11 11 11 11 12 12 13 15 17 18 16 16 17 17 17 17 17 17 17 17 16 16 16 16 16 16 15 14 14 14 14 14 13 13 13 12 12 11 11 11 10
11 11 11 10 11 12 13 14 14 14 15 16 17 17 17 17 17 17 17 17 17 17 16 16 16 16 16 16 16 15 15 15 14 14 14 13 12 12 12 11 11 11 10
11 11 11 11 12 13 13 13 15 16 17 17 17 17 17 17 16 17 16 16 16 16 15 15 16 16 16 16 16 15 15 15 14 14 13 13 12 12 11 11 10 10 10
13 12 12 12 12 13 14 15 16 17 17 18 18 17 17 16 15 16 15 16 15 15 15 15 16 16 16 16 16 15 14 14 14 14 13 13 12 12 11 11 10 10 9
13 13 13 13 14 14 15 15 17 17 18 18 18 17 17 16 16 15 15 16 16 15 15 15 15 16 15 15 15 15 15 14 14 13 13 13 12 12 12 11 10 10 9
16 15 14 15 16 15 16 16 17 18 17 18 18 17 16 15 16 15 15 16 15 15 15 15 15 15 15 14 14 15 12 13 13 13 12 12 12 12 12 11 11 10 9
17 17 18 17 17 17 17 19 19 19 19 19 18 17 17 16 16 15 15 16 15 15 16 15 14 14 14 14 13 13 11 11 13 14 13 12 12 12 11 11 10 10 10
18 19 19 20 19 19 19 20 20 19 19 19 18 17 16 16 16 16 15 16 15 15 15 15 14 14 15 14 12 12 12 11 10 9 13 12 12 11 11 11 10 10 10
20 20 20 21 21 21 21 20 20 20 19 20 20 17 16 16 15 15 15 15 15 15 15 14 14 14 14 13 13 11 11 10 10 9 8 11 12 12 11 10 10 10 9
21 21 21 21 21 22 20 21 20 19 20 20 19 18 16 16 15 14 14 14 14 14 14 14 13 14 13 12 12 11 10 10 11 11 8 10 10 11 11 11 11 10 9

GFSSE_925_temp_075.txt.gz
Temp
18 18 19 19 21 21 21 22 22 21 21 21 21 21 21 20 19 18 18 18 18 17 17 17 18 18 18 17 17 17 17 17 17 15 15 15 15 15 15 15 15 15 15
20 18 18 19 19 20 21 21 21 21 21 21 20 20 19 19 18 18 18 18 17 17 17 17 18 18 18 17 17 17 16 16 16 16 15 15 15 15 15 14 15 15 15
23 20 19 19 18 18 20 20 20 20 20 20 19 19 19 18 18 18 18 17 17 17 17 17 18 18 18 17 17 17 17 17 16 15 15 14 14 14 14 14 14 15 15
20 23 22 19 18 18 19 19 19 19 20 19 19 19 18 18 18 18 17 17 17 16 17 17 18 18 18 18 18 18 17 16 16 16 15 14 13 13 13 13 14 14 14
21 23 20 19 19 18 18 19 19 20 19 19 19 19 18 18 18 18 17 17 17 16 16 18 19 18 18 18 18 18 18 17 17 17 15 13 13 13 13 13 13 13 13
19 18 19 19 19 18 18 19 19 19 19 19 19 18 18 17 18 17 17 17 17 17 18 18 18 19 19 19 19 17 17 17 17 17 14 13 13 13 12 12 12 12 12
18 18 20 18 18 18 18 18 18 18 19 19 18 17 17 17 17 17 17 17 18 18 18 18 18 18 19 19 19 18 16 16 16 15 14 13 13 12 12 12 12 12 12
18 18 17 18 18 18 17 18 18 18 18 18 17 17 17 17 17 17 17 18 18 18 18 18 18 18 18 18 19 18 16 15 16 16 14 13 13 12 12 12 12 12 12
18 18 18 17 16 17 17 17 16 17 17 17 16 17 17 17 17 17 17 18 18 18 18 18 18 18 18 18 18 19 17 16 15 15 14 13 12 12 12 12 12 11 11
16 16 15 16 17 16 16 15 16 16 16 17 17 17 17 17 17 17 17 18 18 18 17 18 17 17 18 18 18 17 17 16 15 14 14 12 12 12 12 11 11 11 11
15 15 15 16 15 16 15 15 16 16 16 16 16 16 16 16 17 17 18 18 18 17 17 17 17 17 17 17 17 17 16 16 16 15 14 12 12 12 11 11 11 11 11
15 15 15 15 15 15 15 14 15 16 16 16 16 16 16 16 17 17 17 17 17 17 17 17 17 17 17 17 17 17 16 16 16 15 14 12 12 12 11 11 11 11 11
14 14 14 14 13 14 13 14 15 16 16 16 16 16 16 17 16 17 17 17 17 17 17 16 16 16 16 16 16 17 16 15 16 15 14 12 12 12 11 11 11 10 10
12 12 12 13 13 14 14 14 15 15 16 17 17 17 16 17 17 17 17 17 16 16 16 16 16 16 16 16 16 16 16 15 15 15 14 13 12 12 11 11 11 10 10
11 12 11 11 11 12 13 14 15 16 16 16 16 17 17 17 17 16 17 17 16 16 16 16 16 16 16 15 15 15 16 15 15 14 14 14 12 12 12 11 11 10 10
11 12 11 12 12 11 13 15 16 15 15 16 16 16 16 17 17 17 17 16 16 16 16 16 16 16 15 15 15 15 15 15 14 14 14 14 13 12 12 11 11 11 10
11 11 12 12 11 12 12 13 14 15 16 16 16 16 16 17 17 17 16 16 16 16 16 16 16 15 15 15 15 15 15 14 14 13 13 13 13 12 12 12 11 11 10
11 12 12 12 12 12 12 13 14 15 15 17 17 17 17 17 17 16 17 17 17 16 16 16 16 15 16 15 15 15 14 14 14 14 13 13 12 12 12 12 11 11 10
12 11 11 12 13 12 12 13 14 14 16 17 19 18 17 17 17 17 17 17 17 16 16 16 16 16 16 16 15 15 15 14 14 14 13 13 12 12 11 11 11 10 10
11 11 11 11 12 12 13 14 14 15 16 17 18 17 17 17 17 16 17 17 16 16 16 16 15 16 16 16 15 15 15 15 14 14 13 13 13 12 12 12 11 10 10
11 11 11 11 12 13 13 13 14 14 15 16 16 17 17 17 17 16 16 16 16 16 16 15 15 16 15 16 15 14 14 14 14 14 13 13 13 12 12 11 11 10 10
11 12 11 12 13 13 13 13 13 15 16 17 17 17 17 17 17 16 16 16 16 15 15 15 15 15 15 15 15 13 10 12 13 13 13 13 13 12 12 11 11 11 10
12 12 12 13 13 14 14 15 15 16 17 17 17 17 17 17 16 16 16 15 15 15 15 15 15 15 15 14 14 14 9 9 11 13 13 13 12 12 12 12 11 11 10
13 13 13 14 14 15 15 14 15 16 17 17 18 17 17 17 16 16 16 15 15 15 15 15 15 15 15 14 13 13 13 12 9 9 12 12 12 12 12 11 11 11 10
15 14 14 14 14 15 15 15 16 17 17 18 17 18 17 17 16 16 16 15 15 15 15 15 15 14 14 13 13 12 11 11 11 9 8 10 11 12 11 11 11 11 10
16 16 16 16 16 16 16 16 18 18 19 19 18 18 17 17 16 16 16 15 15 15 15 14 13 14 13 13 12 12 11 10 9 9 7 8 9 10 10 10 10 10 10

GFSSE_925_temp_078.txt.gz
Temp
19 19 20 21 22 22 22 22 21 22 21 21 20 19 18 18 18 17 17 17 17 17 17 17 17 16 16 16 15 15 15 15 15 15 15 15 15 15 15 15 15 15 15
18 19 20 20 18 19 21 21 21 21 21 21 21 20 19 19 18 17 17 17 17 17 17 16 16 16 16 15 15 16 16 16 15 14 14 15 15 15 15 15 15 15 15
19 20 22 21 19 18 19 20 20 21 21 21 21 20 19 18 18 17 17 17 17 17 17 16 16 16 15 15 15 15 16 16 16 15 14 14 14 14 14 14 14 15 15
20 18 19 22 19 18 18 20 20 20 20 20 20 19 18 18 18 18 18 17 17 17 17 16 16 16 17 16 16 16 16 16 16 15 14 13 13 14 14 14 14 14 14
20 18 19 20 20 18 18 19 19 20 20 20 19 18 17 17 18 18 18 18 18 17 17 16 17 17 17 17 17 16 16 16 16 15 13 13 13 13 13 13 13 14 14
18 17 17 20 18 18 19 19 19 19 19 19 18 17 17 18 18 18 18 18 18 18 17 18 18 18 17 17 17 17 16 16 16 15 13 12 13 13 13 13 12 12 13
18 18 17 20 20 19 18 18 18 18 18 18 17 17 17 17 18 18 18 18 18 18 18 18 18 18 17 17 16 16 16 16 16 14 13 12 12 12 12 12 12 12 12
18 18 18 18 19 17 17 18 18 18 18 18 17 17 17 17 18 18 18 18 18 18 18 18 18 18 17 16 16 16 16 16 15 14 13 12 12 12 12 12 12 11 11
17 16 16 15 17 16 16 17 17 16 17 18 17 17 17 17 17 17 18 18 18 18 18 18 18 18 17 16 16 16 16 15 15 14 13 12 12 12 12 12 11 11 11
15 16 15 15 16 16 16 16 16 16 16 17 17 17 17 17 17 18 18 18 18 18 18 18 18 17 17 17 17 16 15 15 15 14 13 12 12 12 12 11 11 11 10
15 15 15 14 14 16 15 15 14 15 16 16 16 16 16 16 17 18 18 18 18 18 18 17 17 17 17 16 16 16 16 15 14 14 13 12 12 12 11 11 11 11 10
14 14 14 15 15 15 14 14 13 15 15 16 16 16 16 16 17 17 17 17 18 18 17 17 17 17 17 16 16 16 16 15 15 14 13 12 12 12 11 11 11 11 10
14 14 14 14 14 13 14 14 14 16 16 16 16 16 16 16 16 17 17 17 17 17 17 16 16 17 17 16 16 16 15 15 14 14 13 12 12 11 11 11 11 10 10
13 14 14 14 13 13 12 12 14 16 16 16 16 16 16 16 17 17 17 17 17 17 16 16 16 16 16 16 16 16 15 15 15 14 13 12 12 11 11 11 10 10 10
12 13 13 13 13 12 13 13 15 15 16 16 17 17 17 17 17 16 17 17 17 17 16 16 16 15 16 16 15 15 15 15 14 14 14 13 12 11 11 11 11 10 10
12 12 12 13 13 12 13 14 15 16 16 16 17 17 17 17 17 16 17 17 17 17 16 16 16 16 16 15 15 15 15 14 15 14 14 14 12 12 11 11 11 11 10
11 12 11 12 12 13 14 15 16 16 16 16 16 17 17 17 16 17 17 17 17 16 16 16 16 16 15 15 15 15 15 14 14 14 14 13 12 12 12 11 11 11 11
11 11 11 11 11 12 13 14 15 15 16 16 16 16 17 17 17 17 17 17 17 16 16 16 16 15 15 15 15 15 15 14 14 14 13 13 13 12 12 12 12 11 11
11 11 11 11 11 11 12 14 15 16 16 16 16 16 17 16 16 16 17 17 16 16 16 16 16 16 15 15 15 15 15 14 14 14 13 13 13 13 12 12 11 11 11
11 11 11 11 11 11 12 14 14 15 16 16 17 17 16 16 16 17 16 16 16 16 16 16 16 15 15 15 15 15 15 14 14 14 13 13 13 13 12 12 12 11 11
11 11 11 11 11 12 12 13 14 15 17 17 17 16 17 17 17 17 16 16 16 16 16 16 16 15 15 15 15 14 14 14 14 14 13 13 13 13 13 12 12 11 11
11 11 11 11 12 12 13 13 14 15 16 16 17 18 18 17 17 16 16 16 16 16 16 16 15 15 15 15 14 13 10 12 13 13 13 13 13 12 12 12 11 11 11
11 11 11 11 12 12 13 13 14 15 16 16 17 17 18 17 17 16 16 16 16 16 16 15 15 15 15 14 15 14 9 9 10 12 13 13 13 12 12 11 11 11 11
11 11 11 11 12 12 13 12 13 14 14 15 15 16 16 16 17 17 16 16 16 16 15 15 15 15 15 14 13 13 13 12 8 9 11 12 13 12 12 12 11 11 11
12 12 12 12 12 12 12 13 13 13 14 15 15 16 16 17 17 17 17 16 16 15 15 15 15 15 14 14 13 12 10 10 10 9 8 10 12 11 11 11 11 11 10
13 13 13 12 13 13 13 13 14 14 14 15 16 16 16 17 17 16 16 16 16 16 15 14 15 15 14 13 12 12 9 8 7 7 6 8 8 10 11 11 10 10 10

GFSSE_925_temp_081.txt.gz
Temp
19 19 19 19 18 18 18 22 22 21 22 20 20 20 19 18 18 18 17 18 17 17 17 17 16 16 16 15 15 15 15 16 16 16 16 16 15 15 15 15 15 15 15
18 18 19 19 20 19 19 18 20 23 23 21 20 19 18 18 18 17 18 18 17 17 17 16 16 16 15 15 15 15 15 15 15 15 15 15 15 15 15 15 15 15 15
18 18 19 19 20 20 20 19 18 18 20 20 19 18 17 17 17 17 17 17 17 17 17 16 16 16 15 15 15 15 14 14 14 13 14 14 14 14 15 15 15 15 15
18 19 19 20 21 22 21 20 18 18 17 17 17 17 17 17 17 17 17 17 17 16 16 16 16 15 15 15 15 15 15 15 14 14 13 14 14 14 14 15 14 14 14
18 18 18 19 20 21 21 20 19 19 19 18 17 17 17 17 17 17 17 16 16 16 16 16 15 16 16 16 16 16 15 14 14 13 13 13 13 13 13 13 14 14 14
19 19 20 18 20 22 23 20 18 18 19 19 18 17 17 17 17 17 17 16 16 16 16 15 17 17 16 16 16 16 15 14 14 13 13 13 13 13 13 12 12 12 12
18 17 17 18 17 22 21 18 18 19 18 18 19 17 17 17 17 17 17 16 16 16 16 17 17 17 16 16 16 16 16 15 14 13 12 12 13 13 13 12 12 12 12
17 16 17 18 18 18 17 17 17 18 18 19 18 17 16 17 17 18 18 17 17 17 17 17 17 16 16 16 16 16 16 15 14 13 12 12 12 13 12 12 11 11 11
16 16 16 16 15 15 16 16 17 16 18 18 18 17 16 17 17 18 18 18 18 17 17 17 17 16 16 16 16 16 15 15 15 13 12 12 12 12 12 11 11 11 11
17 17 17 15 16 16 16 15 15 16 16 18 17 17 17 17 18 18 18 18 18 18 17 17 17 17 17 16 16 15 15 15 15 13 12 12 12 12 12 11 11 11 10
15 14 15 15 15 15 15 14 15 15 16 17 17 17 16 16 17 18 18 18 18 17 17 17 17 17 17 16 16 16 15 15 14 13 12 12 12 12 12 11 11 10 10
14 14 15 15 14 13 13 14 14 14 16 16 17 16 16 16 17 17 17 17 17 17 17 16 16 16 16 16 15 15 15 15 14 13 12 12 12 12 11 11 11 10 10
14 14 14 14 14 14 14 13 13 13 15 15 15 15 16 16 16 17 17 17 17 17 17 17 17 17 16 16 15 15 15 14 14 13 12 12 12 11 11 11 11 10 10
14 14 14 13 14 13 13 13 13 15 15 15 15 15 16 16 16 16 17 17 17 17 17 17 17 16 16 16 16 15 15 14 13 13 12 12 11 11 11 11 11 10 10
13 14 13 13 12 12 12 13 14 15 16 17 18 17 17 16 16 17 17 17 17 17 17 17 16 16 16 16 15 15 15 14 13 13 12 12 12 11 11 11 11 10 10
12 13 13 13 12 12 12 12 12 14 17 18 18 18 18 17 17 16 17 17 17 17 17 16 16 16 16 16 15 15 15 14 14 13 13 12 12 11 11 11 11 11 10
12 13 13 13 12 12 12 13 13 14 15 17 17 18 17 17 17 17 17 16 16 17 16 16 15 15 15 15 15 15 14 14 14 14 14 13 12 11 11 11 11 11 10
12 12 12 12 12 12 12 13 14 15 15 15 17 17 17 17 17 17 17 16 16 16 16 16 15 15 15 15 15 15 14 14 14 14 14 14 13 12 11 11 11 11 11
12 11 12 11 11 12 13 13 14 15 16 16 17 16 16 17 17 17 16 16 16 16 16 16 15 15 15 15 15 15 14 14 14 14 14 14 13 12 12 12 12 11 11
11 11 11 11 11 11 12 13 14 15 16 16 16 17 17 17 16 16 16 16 16 16 16 15 15 15 15 15 15 14 14 14 14 14 14 13 13 12 12 12 12 12 11
11 11 11 11 12 12 13 13 14 15 16 16 16 16 16 15 16 17 16 16 16 16 16 16 15 15 15 15 14 13 13 14 13 14 13 13 13 12 12 12 12 12 11
11 11 11 11 11 12 12 13 13 14 15 15 15 16 16 17 17 16 16 16 16 16 16 16 15 15 15 15 14 12 10 12 13 13 13 13 13 13 12 12 12 12 11
11 11 11 10 11 11 12 12 14 15 15 15 16 16 16 17 16 16 16 16 16 16 16 16 15 15 15 14 14 14 8 9 10 12 12 12 12 12 12 12 12 12 11
11 11 11 11 11 11 12 13 14 14 15 16 17 17 16 16 16 16 16 16 16 16 16 16 15 15 15 14 13 13 12 11 10 10 10 11 11 11 11 11 11 11 11
11 10 11 11 12 12 12 13 13 13 14 15 16 17 17 17 17 17 17 16 15 16 16 15 15 14 14 14 14 12 10 10 9 9 8 9 10 11 10 10 10 11 10
11 11 11 11 12 12 12 12 13 13 14 14 15 15 17 17 18 17 17 16 16 16 16 15 15 14 14 14 14 14 12 10 8 7 6 7 8 10 10 10 10 10 10

GFSSE_925_temp_084.txt.gz
Temp
18 18 19 19 20 19 18 19 21 21 21 21 22 20 19 18 18 18 18 18 17 17 17 17 16 16 16 16 15 15 16 16 16 16 16 16 15 15 15 15 15 16 15
19 19 19 19 19 20 20 20 21 21 21 21 21 19 18 18 18 17 17 17 17 17 17 16 16 16 15 15 15 15 15 15 15 15 15 16 15 16 15 15 15 15 15
18 19 20 19 19 20 20 18 21 21 21 21 20 19 18 18 18 17 17 17 17 17 16 16 16 15 15 14 14 14 15 15 15 15 15 15 15 15 15 15 15 15 14
19 18 18 19 20 21 21 20 19 19 19 20 19 19 18 17 17 17 16 16 16 16 16 16 16 15 14 14 14 13 13 14 14 14 14 14 15 15 15 14 14 14 13
18 18 17 18 19 20 21 20 18 17 18 18 19 20 18 17 17 16 16 16 16 17 17 16 15 15 15 16 14 13 14 14 14 14 14 14 14 14 14 14 13 13 13
17 17 17 18 18 18 20 20 20 19 19 19 19 19 18 17 16 16 16 16 16 16 16 15 15 16 16 16 15 14 14 13 13 13 13 13 13 13 13 13 13 12 12
17 17 16 18 18 18 17 18 18 18 18 18 18 17 17 16 16 16 16 16 16 16 16 16 16 16 16 16 16 15 14 13 13 13 13 13 13 13 13 12 12 12 12
19 20 16 17 18 17 18 17 18 18 17 17 18 18 17 16 16 16 16 16 16 17 17 17 16 16 16 16 15 14 14 13 13 13 13 13 12 12 12 12 11 11 11
17 17 16 17 16 17 17 18 17 17 18 17 17 17 17 17 16 15 15 16 17 17 17 16 16 16 16 16 16 15 14 14 13 12 12 12 12 12 12 11 11 11 11
16 18 18 17 17 16 17 16 18 18 18 17 17 17 18 16 16 15 16 16 16 17 17 16 16 16 16 15 15 15 14 14 13 12 12 12 12 12 12 11 11 11 10
15 15 17 16 15 15 15 16 16 16 17 17 16 17 17 16 16 16 16 17 16 16 17 16 16 16 15 15 15 15 14 13 13 12 12 12 12 12 11 11 11 10 10
14 15 15 14 14 14 14 15 15 15 16 16 16 16 17 17 17 16 16 16 16 17 17 17 16 15 16 15 15 15 14 14 13 12 12 12 12 12 11 11 11 10 10
14 15 14 15 14 14 14 14 14 14 14 16 15 15 17 17 16 16 15 16 16 17 17 17 17 16 16 16 15 14 14 13 13 12 12 12 12 12 11 11 11 10 10
14 14 14 14 14 13 13 16 14 14 14 15 16 16 16 16 16 16 16 16 17 17 16 17 16 16 16 15 15 14 14 13 13 12 12 11 11 11 11 11 11 10 10
14 14 13 13 12 13 14 13 14 14 14 15 16 16 16 17 16 16 16 16 16 16 17 16 16 16 16 15 15 15 14 14 13 12 12 11 11 11 11 11 11 10 10
13 13 13 13 12 12 14 13 13 14 14 15 18 17 17 17 16 16 16 16 16 16 17 16 16 16 16 15 15 14 14 14 13 12 12 11 11 11 11 11 11 10 10
12 13 13 12 12 12 12 13 13 13 14 16 17 18 17 17 17 17 16 16 16 17 16 16 16 16 15 15 15 15 14 14 13 13 12 12 11 11 11 11 11 11 10
12 12 12 12 12 12 11 11 12 13 14 16 17 17 17 17 17 17 16 16 16 16 15 16 16 15 15 15 15 14 14 14 14 13 13 12 12 11 11 11 11 11 11
12 12 12 12 12 12 12 12 13 13 15 16 17 17 17 17 17 16 16 16 16 16 15 15 15 16 15 15 15 14 14 14 14 13 13 13 12 12 12 12 11 11 11
12 12 12 12 12 12 12 12 13 13 15 15 16 16 17 17 17 16 16 16 15 15 15 15 15 15 15 15 14 14 14 14 13 13 13 13 13 13 12 11 11 11 11
11 11 12 11 11 11 12 13 13 13 15 16 16 17 17 16 16 16 16 16 15 16 15 15 15 15 15 15 14 13 13 13 14 14 13 13 13 13 12 12 12 12 11
11 11 11 11 11 11 12 12 13 14 15 15 15 15 16 16 16 16 16 15 16 15 15 15 15 14 14 14 14 12 10 12 13 13 13 13 13 13 12 12 12 12 11
11 11 11 11 11 12 12 13 13 14 14 14 14 16 15 15 16 16 15 16 16 16 15 15 15 15 15 14 14 14 8 9 10 12 13 13 13 12 12 12 11 11 11
11 11 11 11 11 12 13 13 13 14 14 14 14 15 14 15 15 16 16 16 16 15 16 16 16 15 15 14 12 13 13 12 10 10 11 11 12 11 11 11 11 11 11
12 11 11 11 11 12 13 12 13 14 15 15 15 15 15 15 16 16 16 16 16 16 15 15 15 15 15 14 14 12 11 10 11 9 9 9 9 10 10 11 11 11 10
11 11 11 11 11 11 11 12 13 14 14 15 15 15 16 16 16 17 17 16 15 16 15 15 15 15 14 14 14 13 13 11 9 9 7 8 9 9 10 10 10 10 10

GFSSE_925_temp_087.txt.gz
Temp
18 19 19 20 20 20 19 19 20 21 21 21 20 20 20 19 19 18 18 18 18 18 17 17 17 17 17 16 16 16 16 16 16 16 16 15 15 16 17 16 16 16 16
19 18 20 20 20 19 19 19 20 20 20 20 19 19 21 19 18 18 18 18 17 17 17 17 16 16 16 15 15 15 16 16 16 16 16 16 15 15 15 16 16 15 15
19 18 19 19 19 18 19 19 20 20 20 20 19 18 20 18 18 18 18 17 17 17 16 16 16 16 15 15 14 15 15 15 15 15 16 17 16 15 15 15 15 15 15
18 18 18 19 19 18 18 18 19 19 20 19 18 18 18 18 18 18 17 17 17 16 16 16 15 15 14 14 14 14 15 15 15 15 16 16 16 15 14 14 14 14 14
18 18 18 19 19 19 18 18 18 18 19 18 18 19 19 18 17 17 17 16 16 16 16 16 15 14 14 14 15 15 14 14 15 15 15 15 15 14 14 14 13 13 13
18 18 18 18 19 19 18 18 18 18 18 18 18 18 18 18 17 17 17 17 17 17 17 15 15 16 16 16 15 14 14 14 14 15 15 14 15 13 13 13 13 13 12
18 17 17 18 17 17 18 18 18 18 19 19 18 18 17 17 17 17 17 17 16 16 16 14 16 16 16 15 14 14 14 14 14 14 14 14 14 13 13 13 12 12 12
16 16 16 19 18 16 18 18 18 18 19 19 18 17 17 17 17 17 17 16 16 16 15 16 16 16 16 15 14 14 14 13 14 14 14 14 13 13 13 12 12 11 11
16 16 15 17 16 16 16 18 20 18 18 18 17 16 16 17 17 17 16 16 16 15 16 16 16 16 15 15 15 14 14 13 14 14 14 14 12 12 12 12 11 11 11
15 16 17 16 16 16 16 16 17 18 17 17 17 16 16 17 17 17 16 16 17 16 16 16 16 16 16 15 14 14 14 13 13 13 14 13 12 12 12 11 11 11 11
15 15 14 15 16 16 16 16 16 16 17 16 16 16 16 15 15 16 16 17 17 16 16 16 16 15 15 15 14 14 13 13 13 14 14 12 12 12 12 11 11 11 10
15 15 14 14 15 15 16 15 16 16 16 16 15 15 15 15 15 16 16 16 17 16 16 16 15 15 14 13 13 13 13 13 13 13 13 12 12 12 11 11 11 11 10
15 14 14 14 14 14 14 15 15 15 16 15 15 15 14 14 15 16 16 15 16 16 14 14 15 14 14 13 13 14 13 13 13 13 13 12 12 12 11 11 11 10 10
14 14 14 14 14 14 14 14 14 15 15 15 15 14 14 14 15 15 15 15 16 14 14 13 13 15 15 15 15 14 13 13 13 13 12 12 12 12 11 11 11 10 10
14 14 14 14 14 14 13 13 14 14 14 15 14 14 14 14 15 16 16 16 16 16 16 15 16 15 15 14 15 14 13 12 12 13 13 12 12 12 11 11 11 11 10
13 14 13 13 14 13 13 13 14 14 14 15 15 16 14 14 16 16 16 16 16 16 16 15 16 15 15 15 14 14 13 12 12 12 12 12 11 11 11 11 11 11 10
13 13 13 13 13 13 13 13 14 14 14 14 14 15 16 16 17 17 16 16 16 16 16 16 16 15 15 14 14 14 14 14 13 12 11 12 12 11 11 11 11 11 11
12 13 12 12 13 12 13 13 13 13 13 13 14 16 17 17 17 16 16 16 16 16 15 16 16 14 14 14 14 14 14 14 13 12 11 11 12 12 11 11 11 11 11
12 12 12 12 12 12 12 12 12 13 12 13 15 16 17 17 16 17 16 16 16 15 15 16 15 15 14 14 14 14 14 14 13 13 13 12 11 11 12 11 11 11 11
12 12 12 12 12 12 12 12 12 12 13 13 14 15 17 17 16 17 16 16 16 15 15 15 15 15 15 15 13 14 14 14 13 13 13 13 12 11 11 11 11 11 11
12 12 12 12 12 12 12 12 12 13 13 13 13 15 15 16 16 16 16 15 15 15 16 16 14 14 14 14 12 12 12 13 13 13 13 13 12 12 11 11 11 11 11
11 11 11 12 12 12 12 12 12 13 13 14 15 15 15 16 16 16 16 16 15 15 15 15 15 13 13 14 14 13 15 14 13 13 13 12 12 12 12 12 12 11 11
11 11 11 11 11 12 12 12 12 13 14 14 14 14 15 16 17 17 16 16 16 16 15 15 15 14 14 13 14 15 14 15 14 12 11 12 12 12 12 12 11 11 11
12 11 11 11 11 11 12 13 12 13 13 14 15 15 15 16 16 16 16 16 16 16 14 15 16 15 14 13 12 14 14 13 16 16 12 12 11 11 12 12 11 10 10
12 11 11 11 11 11 12 12 12 13 14 13 13 15 14 14 15 15 16 16 16 15 15 15 15 14 15 13 13 12 11 11 11 14 14 12 10 10 11 12 12 10 11
12 11 11 11 11 11 12 12 13 14 14 14 13 14 14 15 16 15 14 15 15 15 15 15 15 15 15 14 12 12 13 13 12 11 11 12 10 11 10 11 11 10 10

GFSSE_925_temp_090.txt.gz
Temp
23 23 21 20 19 20 20 20 20 21 20 20 20 19 19 18 19 18 18 18 18 18 17 17 17 17 17 17 17 17 17 17 17 16 16 16 16 16 16 17 17 17 16
22 22 21 19 19 20 19 20 20 21 20 20 20 19 19 18 19 18 18 18 18 18 17 17 17 17 16 16 17 17 17 16 16 16 16 16 16 16 15 16 16 15 15
21 21 20 19 19 19 19 19 20 21 20 20 19 18 19 18 18 19 18 18 18 17 17 17 16 16 15 16 16 16 16 16 16 17 18 18 16 15 15 15 15 14 14
21 20 21 19 19 21 20 19 19 20 19 19 19 19 19 18 18 18 18 18 17 17 17 16 16 16 15 15 15 16 16 16 17 18 18 17 16 15 14 14 14 14 14
20 19 20 20 19 19 22 19 18 18 18 18 18 18 18 18 18 17 17 17 17 16 16 16 16 15 15 15 15 15 15 16 17 19 17 16 16 14 14 14 14 14 14
20 19 19 18 19 20 19 19 18 19 18 18 18 18 18 17 17 17 17 17 17 16 16 15 14 14 15 15 15 15 15 17 18 18 17 16 15 14 13 13 13 13 13
20 19 18 18 20 17 18 20 19 18 18 18 18 18 17 17 17 17 17 17 16 16 15 14 14 16 16 15 15 15 16 17 18 18 18 16 15 14 13 13 13 12 12
17 18 17 17 18 18 22 17 17 18 18 18 18 18 17 17 17 17 17 17 16 16 15 16 17 16 16 15 15 15 15 17 18 18 17 16 13 13 13 12 12 12 12
16 16 16 16 16 17 17 17 15 18 17 17 17 17 17 17 17 17 16 16 16 16 17 17 16 16 16 15 14 15 15 16 18 18 17 15 13 13 13 12 12 11 11
16 16 16 16 17 17 15 14 15 18 19 17 17 17 17 17 17 16 16 17 17 16 17 17 17 16 15 14 14 14 15 16 17 17 17 14 13 13 12 12 11 11 11
16 15 15 15 16 16 16 16 15 17 18 18 17 16 16 16 16 17 17 17 17 17 17 17 16 15 14 14 14 14 16 17 17 17 16 13 13 13 12 12 11 11 11
17 15 15 15 15 15 15 15 16 15 16 16 16 16 16 16 17 18 16 16 17 16 16 16 15 15 15 14 14 14 17 16 17 17 14 13 13 12 12 11 11 11 11
19 16 15 14 15 15 15 15 15 15 16 16 16 17 16 16 17 16 15 15 15 16 15 15 14 16 16 16 15 16 16 16 17 16 13 13 12 12 12 11 11 11 10
18 17 14 14 14 14 15 15 15 15 15 15 15 16 16 16 16 16 17 17 16 16 16 15 16 16 16 16 16 15 16 17 17 16 13 13 12 12 12 11 11 11 10
17 15 14 14 14 13 14 14 14 14 15 14 14 15 16 16 16 17 17 18 17 17 16 16 16 15 15 15 15 15 16 16 16 16 14 12 12 12 12 11 11 11 10
15 14 14 14 14 13 14 14 14 14 15 14 14 15 16 16 16 17 17 17 17 17 17 17 16 16 16 16 15 15 15 15 15 16 15 13 12 12 12 12 11 11 11
14 13 13 13 13 13 13 13 13 14 14 14 14 14 15 15 15 15 16 17 17 17 16 16 16 16 16 16 16 15 15 15 15 15 15 14 12 12 11 11 11 11 11
13 13 13 13 13 13 13 13 13 14 14 14 14 14 14 14 15 15 15 16 16 15 15 16 16 16 16 17 16 16 15 15 15 14 14 15 14 13 12 11 11 11 11
12 13 12 13 12 13 13 13 13 13 13 13 13 14 15 16 15 15 14 14 15 14 15 15 16 16 16 17 16 16 15 15 14 14 14 14 14 14 14 12 11 11 11
12 12 12 12 13 13 13 13 12 12 12 13 13 14 15 18 16 16 14 15 15 15 15 15 15 16 16 16 16 15 15 15 15 14 14 14 14 13 14 14 12 12 11
12 12 12 12 12 13 13 12 12 12 12 12 13 13 15 16 16 16 16 15 15 16 15 14 15 14 14 14 14 15 14 14 14 15 14 15 14 14 14 14 14 13 12
12 12 12 13 12 12 13 12 12 12 12 13 13 13 14 16 16 16 16 15 15 15 15 13 13 14 15 14 16 17 18 17 15 15 15 15 14 14 14 14 13 13 12
13 12 12 12 12 13 13 12 12 12 12 12 12 13 15 16 15 15 15 15 15 15 14 14 14 16 16 15 15 17 19 19 19 17 15 15 14 13 13 13 12 11 11
14 13 13 12 12 12 12 13 12 13 13 13 14 13 14 14 14 15 15 15 14 15 15 15 15 15 16 17 15 15 15 16 19 17 16 15 14 12 12 12 12 11 10
15 14 13 12 12 12 13 13 12 13 15 14 13 14 14 15 15 14 15 14 15 15 15 15 15 15 16 16 16 16 15 16 16 17 18 17 14 13 12 11 11 11 10
14 14 14 13 12 11 12 12 13 13 14 13 13 14 14 15 15 15 16 15 15 15 15 15 15 14 14 15 15 16 16 17 17 16 16 17 16 16 13 12 12 12 10

GFSSE_925_temp_093.txt.gz
Temp
27 23 22 21 20 20 19 19 19 20 20 20 20 20 18 18 18 19 19 18 18 18 18 17 17 17 17 17 18 18 18 17 17 17 17 17 17 17 17 17 17 17 16
24 25 22 22 20 20 19 19 18 19 20 20 19 19 19 18 18 19 19 18 18 18 17 17 17 17 16 17 17 17 17 18 18 17 16 16 16 16 16 16 16 16 15
24 24 21 21 20 19 19 20 19 18 19 18 19 19 18 18 18 18 18 18 18 17 17 17 17 16 16 17 17 17 17 17 18 18 19 17 16 15 16 16 15 15 15
24 23 23 21 20 20 20 20 19 19 19 18 18 19 18 19 18 18 18 18 18 17 17 17 16 16 15 17 17 17 17 17 18 19 19 17 16 15 15 14 14 14 14
24 23 22 21 21 20 20 20 22 20 19 18 18 18 18 18 18 18 18 18 18 17 17 16 16 15 15 16 16 17 17 18 19 18 17 16 16 15 14 14 14 14 14
24 23 21 19 20 20 20 19 20 20 19 18 18 18 18 18 18 17 18 17 17 17 17 16 15 15 16 16 16 17 18 18 18 19 17 16 16 14 14 13 13 13 13
22 22 21 19 19 19 19 18 17 19 18 18 18 18 18 18 18 17 17 17 16 16 16 15 14 15 15 16 16 18 18 19 20 19 18 16 15 14 13 13 13 13 13
20 20 20 18 18 19 19 18 19 15 17 18 18 18 18 17 17 17 17 16 16 16 15 14 15 15 15 15 16 17 18 19 20 19 18 16 14 13 13 13 12 12 12
19 18 18 17 18 19 19 19 18 16 15 16 18 17 17 17 17 17 16 16 16 17 17 17 16 15 15 15 16 17 18 19 20 19 17 15 13 13 13 12 12 12 12
19 18 18 17 18 17 17 16 16 15 15 16 18 17 17 17 17 17 16 16 17 17 18 17 16 15 15 15 16 17 18 19 19 19 17 14 13 13 12 12 12 12 11
17 18 17 17 17 16 16 16 15 15 13 14 18 17 17 17 17 16 16 16 17 17 17 17 16 16 15 15 16 17 18 20 19 18 15 13 13 13 12 12 12 11 11
20 18 17 17 17 16 15 15 15 16 14 13 17 17 18 17 17 17 16 16 17 16 17 17 16 16 15 15 16 16 17 19 19 17 14 13 13 13 12 12 11 11 11
21 18 17 17 17 16 15 15 15 15 15 15 17 17 18 17 17 16 15 15 14 16 15 15 15 16 17 17 16 18 18 19 19 17 13 13 13 13 12 12 11 11 11
22 18 17 15 16 16 15 15 16 16 15 16 16 18 17 17 16 17 16 16 15 16 15 15 16 18 17 17 17 17 18 19 18 16 13 13 13 12 12 12 11 11 11
21 19 16 15 15 15 15 14 15 15 15 15 16 16 16 17 17 17 17 17 17 18 17 17 18 17 17 17 17 17 18 18 18 16 14 13 12 12 12 12 11 11 11
19 17 15 14 14 14 15 14 14 15 15 15 15 16 16 17 17 18 18 18 18 18 18 18 18 17 18 17 17 17 17 17 18 17 15 13 12 12 12 12 12 11 11
17 15 14 14 13 14 14 14 14 14 14 14 14 15 15 16 17 18 19 19 19 19 18 19 18 18 18 18 17 17 17 17 17 17 16 14 12 12 12 12 12 11 11
17 14 13 13 13 13 13 13 13 14 14 14 14 15 14 15 17 18 19 19 19 19 18 18 18 18 18 18 18 17 18 17 17 16 17 16 14 13 12 12 11 11 11
16 14 13 13 13 13 13 14 13 13 14 14 13 13 14 15 16 17 18 18 18 18 18 18 18 18 18 19 18 18 18 17 17 16 16 16 15 15 14 12 12 11 11
14 13 13 13 13 13 13 13 13 14 13 13 13 13 15 15 15 17 16 15 16 16 16 16 17 17 18 18 19 18 17 17 17 17 16 15 15 15 15 15 12 12 11
14 13 13 12 13 13 13 12 12 13 13 12 12 14 14 14 14 15 14 15 14 15 15 16 16 16 17 17 17 16 16 16 16 16 15 16 16 15 15 15 14 14 13
14 13 14 14 13 13 13 13 12 12 12 12 12 12 12 13 14 14 14 14 14 15 15 15 15 15 16 15 16 18 18 17 16 15 16 16 16 16 16 15 15 15 15
15 13 14 14 14 14 12 12 12 12 12 12 12 12 13 13 14 15 15 15 15 15 14 15 15 15 16 15 16 18 18 18 18 17 16 16 16 16 16 16 15 14 15
16 15 13 14 14 14 14 13 12 13 13 12 12 12 13 14 14 14 14 15 15 15 15 15 15 15 17 18 16 16 17 17 18 18 18 17 16 16 15 15 15 14 14
16 17 15 13 13 13 14 14 14 14 13 12 12 12 13 14 15 14 16 16 15 15 15 16 15 15 16 16 18 17 16 16 16 17 17 18 17 16 15 14 14 13 13
16 16 16 14 13 13 14 14 14 13 13 13 12 12 13 13 14 15 16 16 16 15 15 16 16 15 15 16 16 17 17 17 18 17 17 17 18 17 16 15 14 12 12

GFSSE_925_temp_096.txt.gz
Temp
24 23 23 23 21 20 19 18 18 20 21 20 20 20 20 21 20 20 20 20 19 18 18 18 18 17 17 18 19 19 18 18 17 17 17 17 17 17 17 17 16 16 16
25 22 22 23 21 20 20 19 18 19 19 19 19 19 19 20 20 19 19 19 18 18 18 17 17 17 17 18 18 18 18 18 17 17 16 16 16 16 16 16 16 16 16
25 24 22 22 21 20 20 19 18 18 19 19 19 19 18 19 19 19 18 18 18 18 17 17 17 16 17 18 18 18 18 18 18 17 16 16 16 15 15 16 16 16 15
25 24 22 22 21 20 20 19 19 19 19 19 19 19 18 19 19 18 18 18 18 17 17 17 16 16 17 17 18 18 18 18 18 18 17 16 15 15 15 15 15 15 15
25 24 23 21 21 21 20 20 19 19 19 19 19 19 19 19 19 18 18 17 17 17 17 16 16 16 17 17 18 18 18 18 18 17 17 16 15 15 15 15 14 14 14
24 24 22 21 20 21 20 20 20 20 19 19 19 19 18 18 18 18 18 17 17 17 16 16 15 17 17 18 18 18 17 18 17 17 16 15 15 14 14 13 13 13 14
23 23 22 21 20 20 19 20 19 18 18 18 18 19 18 18 19 18 17 17 17 17 16 15 16 17 17 17 17 18 18 18 18 17 16 15 14 14 14 13 13 13 13
21 21 21 20 19 19 19 19 18 18 18 18 16 17 18 18 18 18 17 17 17 16 16 16 17 16 17 17 18 18 18 19 19 17 15 14 14 14 13 13 12 12 12
19 19 19 18 18 18 18 19 19 18 18 17 18 15 18 18 18 18 17 17 16 16 16 16 16 16 17 18 18 19 19 19 18 16 14 13 13 13 13 12 12 12 12
20 19 18 18 18 18 17 17 18 19 20 19 17 14 17 17 18 17 17 16 16 15 15 16 16 16 17 17 18 19 19 19 18 16 14 13 13 13 13 12 12 12 12
19 19 18 18 18 18 17 17 17 17 17 16 15 13 16 17 17 16 16 16 16 14 16 16 16 16 17 17 18 19 19 19 17 16 14 13 13 13 12 12 12 12 11
21 18 18 18 18 17 16 16 16 16 15 14 14 14 16 16 16 16 16 16 15 16 16 16 16 16 17 17 18 18 19 18 17 15 13 13 13 13 12 12 12 11 11
20 18 17 18 17 17 16 16 16 15 14 13 13 13 16 16 16 16 15 15 15 16 15 16 15 16 16 17 18 18 19 18 16 14 13 13 13 13 12 12 11 11 11
21 18 17 17 17 16 16 15 14 14 14 14 16 14 16 16 16 15 15 15 15 14 15 16 16 16 16 17 17 18 19 17 16 15 13 13 13 13 12 12 11 11 11
22 18 17 16 16 16 16 15 15 14 14 15 15 15 16 16 15 15 15 14 15 15 15 17 17 17 17 17 17 18 18 17 16 15 13 13 13 12 12 12 11 11 11
21 18 16 15 15 15 15 15 15 15 15 15 15 16 17 16 16 16 15 15 16 16 16 17 17 17 17 17 17 17 18 17 16 15 13 13 12 12 12 12 12 11 11
19 16 15 15 14 15 15 15 15 15 15 15 15 15 16 16 16 16 16 17 17 17 17 18 18 18 17 17 17 17 18 18 16 15 14 13 12 12 12 12 12 11 11
18 15 14 13 14 14 14 14 15 15 15 15 15 16 17 17 17 17 17 17 18 18 18 18 18 18 17 17 17 17 17 17 17 16 15 14 13 12 12 12 12 11 11
17 15 14 13 13 14 14 14 14 14 14 14 14 16 16 17 18 17 18 19 19 18 18 18 18 18 18 18 17 17 17 17 17 17 16 15 14 13 13 12 12 12 11
16 14 13 13 14 14 13 13 14 14 14 14 14 14 15 16 18 18 18 19 18 18 18 18 18 18 18 18 18 18 18 17 17 17 16 16 15 15 14 14 13 12 12
15 14 13 13 13 13 13 13 13 14 14 14 13 14 14 15 16 17 17 17 17 17 17 17 17 18 18 18 18 17 17 17 17 17 16 16 15 15 15 14 14 14 13
15 14 13 13 13 13 13 12 13 13 13 13 13 13 14 14 15 16 17 16 16 16 16 16 17 17 16 17 15 16 14 15 16 16 16 16 15 15 15 15 14 14 14
15 14 14 14 14 13 13 12 12 12 12 12 12 12 13 14 15 16 16 15 15 15 16 16 16 16 15 15 17 16 15 15 15 16 16 16 16 16 16 16 15 15 15
15 14 15 15 14 13 13 13 13 12 12 12 12 12 13 14 14 14 14 14 15 15 15 16 15 15 15 15 16 16 16 16 14 14 15 16 16 16 16 16 16 15 15
16 15 15 15 14 13 14 13 13 13 13 12 11 11 12 12 12 12 14 14 14 15 15 15 15 15 16 16 15 16 16 16 16 15 13 16 16 16 16 16 16 16 15
17 15 15 14 14 14 14 13 14 14 13 12 12 12 11 11 12 13 14 14 14 15 14 15 15 15 16 16 16 17 17 16 16 15 13 15 16 17 16 16 16 15 15

GFSSE_925_temp_102.txt.gz
Temp
21 21 21 22 23 22 22 22 22 21 21 21 21 22 22 22 21 20 20 19 19 18 19 19 19 19 18 18 18 18 18 18 18 17 17 17 17 17 16 17 17 17 17
23 22 22 22 22 22 22 22 23 23 22 21 21 21 21 21 20 20 20 20 19 18 18 19 18 18 18 18 18 18 18 17 17 17 17 17 17 17 16 17 17 17 17
23 22 21 21 21 22 21 22 22 22 24 21 21 20 20 20 20 20 20 19 18 18 18 18 18 17 17 18 18 17 17 17 17 17 17 16 16 16 16 17 17 17 17
23 22 22 21 22 21 22 22 21 21 22 21 21 20 20 20 19 19 19 18 18 18 17 17 17 17 17 17 17 17 17 17 16 16 16 16 16 16 16 17 16 16 16
23 22 22 22 22 21 21 22 22 22 21 21 21 20 19 19 19 19 19 18 18 18 17 18 17 17 17 17 17 17 16 16 16 16 15 15 16 15 15 16 15 15 15
22 22 22 22 21 21 21 20 20 20 20 19 20 19 18 18 19 19 18 18 18 18 18 17 17 17 17 17 16 16 16 16 16 16 16 16 16 15 14 14 14 14 14
22 22 21 21 21 21 20 20 19 19 19 18 18 18 17 18 17 18 18 18 18 17 17 16 17 17 17 16 16 16 16 16 16 16 16 16 15 14 14 14 13 14 14
22 21 21 20 20 20 19 19 19 19 19 18 18 17 18 17 17 16 18 17 17 17 16 16 17 17 17 17 16 16 16 16 16 15 15 15 15 14 13 13 13 13 13
22 22 20 20 19 19 19 19 19 19 19 18 17 16 18 18 18 16 17 17 17 16 16 16 16 17 17 16 16 16 16 16 15 15 14 14 14 14 13 13 13 13 13
21 21 20 19 18 18 18 18 18 19 19 19 17 16 17 19 17 16 16 17 17 16 16 16 17 17 17 17 17 17 16 16 15 14 14 14 13 13 13 13 13 12 12
20 20 20 19 18 18 18 17 17 18 18 17 17 17 18 19 17 15 17 16 17 17 16 16 17 17 17 17 17 16 16 15 14 14 13 13 13 13 13 13 12 12 12
19 19 19 19 18 18 17 17 16 16 16 17 15 17 17 17 16 16 16 16 16 17 16 16 17 17 17 16 16 16 16 15 14 13 13 13 13 13 13 12 12 12 12
20 19 18 18 18 18 17 17 16 16 16 16 15 15 16 16 18 19 16 15 16 16 16 16 16 17 16 16 16 16 16 15 14 13 13 13 13 13 12 12 12 12 11
19 19 18 18 17 17 17 16 16 15 16 15 15 16 16 16 16 15 16 15 15 16 16 16 16 17 17 16 16 16 15 15 14 13 13 13 13 13 12 12 12 11 11
19 18 17 17 17 16 16 16 15 15 14 15 14 15 15 16 15 15 14 14 15 16 16 16 16 18 17 16 16 16 16 15 14 13 13 13 13 12 12 12 12 11 11
19 18 17 16 16 16 16 16 15 15 15 14 14 14 15 15 14 14 14 15 15 16 16 16 17 17 17 16 16 16 16 15 14 14 13 13 12 12 12 12 12 11 11
18 17 17 16 16 16 16 15 14 14 15 13 13 13 13 14 14 13 14 15 15 16 16 17 17 17 17 16 16 16 16 15 14 14 13 13 12 12 12 12 12 11 11
17 16 16 16 15 16 15 14 15 14 14 14 13 13 13 14 14 13 14 15 15 16 16 16 16 17 17 16 16 15 16 15 15 14 13 13 12 12 12 12 12 11 11
17 16 16 15 15 15 15 14 14 14 14 14 14 14 13 14 14 14 15 15 16 16 16 16 16 17 17 16 16 16 16 15 15 14 14 13 13 13 13 12 12 12 11
17 16 16 15 15 14 14 14 14 14 14 14 15 14 15 14 14 15 15 16 15 15 15 15 17 16 17 16 16 15 15 15 15 15 15 14 13 14 13 13 13 12 12
15 15 15 14 14 14 13 13 13 14 14 14 14 14 14 14 14 15 15 16 15 16 16 16 16 17 16 17 17 14 14 15 16 15 15 15 14 14 14 14 13 13 13
14 14 14 14 14 14 14 13 13 13 14 14 14 14 14 15 14 15 15 15 15 15 16 16 17 16 16 16 15 15 13 14 14 14 15 15 15 14 14 14 14 14 14
14 14 14 13 14 14 13 13 13 13 14 14 14 13 14 14 14 15 15 15 16 16 16 16 17 16 15 16 17 15 11 12 14 15 15 15 15 14 14 14 14 14 14
13 14 14 13 13 13 14 13 13 13 14 13 14 13 13 14 14 15 16 16 16 16 16 17 17 17 16 15 15 17 16 15 12 12 15 16 15 15 15 15 15 15 15
13 14 14 13 13 13 13 13 13 13 13 13 13 13 13 14 15 15 16 16 16 16 17 17 17 17 17 16 16 16 15 14 14 13 12 14 15 16 16 15 15 15 15
13 14 14 14 13 13 12 12 13 12 12 13 13 12 12 12 13 14 14 14 15 14 15 16 17 17 17 17 16 17 16 15 14 14 11 13 14 17 17 16 16 16 16

GFSSE_925_temp_105.txt.gz
Temp
22 21 19 20 21 20 20 21 21 22 22 22 22 22 21 21 21 20 20 20 20 19 19 20 20 19 18 18 18 18 18 18 18 18 17 17 17 17 17 17 17 17 17
24 22 21 21 21 20 21 20 21 21 22 22 21 20 21 21 21 20 20 19 19 19 18 18 19 18 18 18 18 18 18 18 18 18 18 18 17 17 16 17 17 17 17
24 22 21 21 22 22 22 21 20 21 22 22 22 21 20 20 20 20 19 18 19 18 18 18 18 18 17 17 18 18 18 18 17 17 17 17 16 16 16 17 17 17 16
24 23 21 21 22 22 22 22 21 20 20 21 21 22 20 20 20 19 18 18 18 18 18 18 18 18 17 17 17 17 17 17 17 17 17 17 16 16 17 17 17 17 16
24 23 22 21 21 21 22 22 21 21 20 20 20 20 20 19 18 18 18 18 18 18 18 18 18 17 17 17 17 17 17 17 17 17 17 16 16 16 16 16 16 16 16
23 22 21 21 21 20 20 20 20 21 20 18 18 18 18 18 18 18 18 18 18 18 18 18 17 17 17 17 17 17 17 16 16 16 16 16 16 15 17 16 15 15 15
23 22 21 21 21 20 19 19 18 19 20 19 18 18 17 18 18 18 17 17 18 18 18 17 16 16 16 16 16 16 16 16 16 16 16 16 15 15 15 15 14 14 14
22 21 21 20 20 20 19 19 19 18 18 18 18 17 17 17 19 16 17 18 18 17 17 17 16 16 16 16 16 16 16 16 16 16 16 16 15 14 14 14 14 14 13
22 21 21 20 19 19 19 19 19 18 19 18 17 17 18 18 17 18 17 17 17 17 17 16 16 16 16 16 16 16 16 16 16 15 15 15 15 14 14 13 13 13 13
21 21 20 19 19 19 18 18 18 19 19 17 17 16 17 17 18 17 18 17 17 17 16 16 16 16 16 16 16 16 16 16 15 15 15 15 14 14 13 13 13 13 13
20 20 20 19 19 18 18 18 18 18 19 18 17 16 16 17 16 18 18 18 16 17 16 16 16 16 16 16 16 16 16 15 15 14 14 14 14 14 13 13 13 12 12
19 19 20 19 19 18 18 18 18 17 17 18 16 15 15 16 17 17 17 18 15 16 16 16 16 16 16 16 15 16 16 15 14 14 13 13 14 14 13 13 12 12 12
20 19 19 18 18 18 18 17 16 17 17 16 15 15 15 16 16 17 16 17 16 16 15 16 15 16 17 15 15 15 16 15 14 13 13 13 14 13 13 12 12 12 12
19 19 19 18 18 18 17 17 16 16 16 16 15 14 14 16 15 16 16 15 16 16 16 16 15 16 16 16 15 15 16 15 14 13 13 13 13 13 13 12 12 12 11
18 19 18 17 17 17 17 16 16 16 15 15 15 15 15 15 17 15 15 15 15 16 16 16 16 16 15 15 15 16 15 14 14 13 13 13 13 13 13 12 12 12 11
18 18 17 17 17 17 16 16 15 15 15 15 14 15 15 15 14 15 14 14 16 16 16 16 15 16 15 15 15 15 15 15 14 13 13 13 13 12 12 12 12 11 11
18 18 17 17 17 16 16 15 15 14 14 14 15 14 14 14 15 14 14 14 14 17 16 16 15 15 15 15 15 15 15 14 13 13 13 12 12 12 12 12 12 11 11
18 17 17 16 16 16 15 15 14 14 14 14 14 14 13 13 14 14 14 13 14 16 16 16 15 15 15 15 15 14 15 14 13 13 13 13 13 13 12 12 12 11 11
18 17 16 16 16 15 15 14 14 15 14 14 14 13 13 13 14 14 13 13 14 16 15 15 15 15 15 15 15 14 14 14 14 13 13 13 13 13 12 12 12 12 11
17 17 16 16 15 15 14 14 14 14 14 14 14 13 13 13 13 13 13 14 15 15 14 14 15 15 15 15 14 14 14 14 14 14 14 14 14 14 14 13 12 12 12
16 16 15 14 14 14 14 13 14 14 14 14 14 14 13 13 13 12 12 14 15 14 14 15 15 15 15 15 14 12 12 13 13 13 14 14 14 14 14 14 13 13 13
13 14 14 14 14 14 14 13 13 14 14 14 14 14 14 13 12 13 13 14 14 14 13 15 15 15 14 15 14 13 10 12 12 12 13 14 14 14 14 14 14 14 14
13 13 14 14 14 14 15 14 13 13 14 14 14 14 13 12 13 13 14 14 14 14 14 15 16 16 14 15 15 15 11 12 12 13 13 14 14 14 14 15 14 14 14
12 14 14 13 14 14 14 14 13 13 14 14 14 14 13 14 13 13 14 14 14 14 14 16 16 16 16 14 15 16 16 15 12 11 13 14 14 14 15 15 15 15 14
12 13 13 14 13 14 13 14 13 13 13 13 13 13 13 13 13 14 14 14 14 14 15 15 16 16 16 15 15 14 14 14 14 12 11 12 13 14 15 15 15 15 15
12 12 13 13 12 13 13 13 13 13 13 13 13 12 12 13 12 13 12 13 14 15 15 16 16 16 16 16 16 16 16 14 14 13 12 13 13 15 16 16 16 16 16

GFSSE_925_temp_111.txt.gz
Temp
24 25 24 23 21 22 21 22 22 23 22 22 21 21 21 20 20 19 19 19 19 19 19 19 19 19 19 18 18 18 18 18 18 18 18 17 17 17 18 18 18 18 18
27 25 24 23 21 20 20 21 22 22 22 21 21 21 21 20 19 19 19 19 19 19 18 18 19 19 19 19 18 18 18 18 18 18 18 18 17 17 18 17 17 17 17
27 25 24 23 18 19 20 21 22 22 21 21 21 21 20 19 19 19 19 19 19 19 18 18 19 19 18 18 18 18 18 18 18 18 18 18 17 16 17 17 17 17 17
27 25 24 23 18 18 19 20 21 22 21 21 20 20 21 20 20 19 19 19 19 19 18 18 18 18 18 18 18 18 18 18 18 18 17 18 17 16 16 17 17 17 17
26 25 24 23 18 18 19 20 20 19 19 21 21 20 19 19 19 19 19 19 19 19 18 18 18 18 18 18 18 18 17 17 17 17 18 18 18 16 16 16 16 16 16
25 24 23 22 19 18 19 19 19 19 19 20 20 20 20 19 19 19 19 19 19 18 18 18 18 18 18 18 18 18 17 17 17 18 17 16 16 16 16 16 16 16 16
24 23 22 22 21 18 18 19 19 18 18 21 21 20 20 19 19 19 19 19 19 18 18 17 18 17 18 18 17 17 17 18 17 17 17 16 16 15 15 16 16 15 15
23 23 22 21 20 18 18 18 19 19 20 20 20 20 20 19 18 19 19 18 18 18 18 17 18 17 17 17 17 17 17 17 17 17 17 16 15 15 16 15 15 15 15
23 22 21 21 20 19 18 18 18 19 19 19 20 19 18 18 19 18 18 18 18 19 17 17 18 17 17 17 17 17 16 17 16 16 16 16 15 15 14 14 14 14 14
22 21 21 21 20 19 18 18 18 18 19 19 19 19 19 19 19 18 19 19 20 17 17 17 17 17 16 16 16 16 16 16 16 16 16 15 15 14 14 14 13 13 13
20 20 21 20 20 19 18 18 18 18 18 18 18 19 19 18 18 18 18 19 19 18 17 17 17 17 16 16 16 16 16 15 15 15 16 14 14 14 14 13 13 13 13
18 20 20 19 19 19 18 18 18 17 17 18 18 18 17 17 18 18 18 18 19 17 17 17 17 16 16 15 15 16 15 14 14 14 15 14 14 14 13 13 13 13 12
19 19 20 19 19 19 18 17 17 17 17 17 17 17 15 17 17 18 17 17 17 16 16 16 16 16 15 15 14 14 14 14 14 15 15 14 14 14 14 13 13 12 12
18 18 20 20 19 19 18 17 17 17 17 16 16 16 16 15 15 15 17 17 16 16 15 14 15 16 15 14 14 14 14 14 14 15 14 14 14 14 13 13 13 12 12
19 18 20 20 18 18 18 17 17 16 16 16 15 15 15 15 14 14 15 16 15 16 16 14 15 16 14 15 14 14 14 14 14 14 14 14 14 13 13 13 13 12 12
19 19 20 20 18 17 17 16 16 15 16 16 15 15 14 14 14 14 15 15 14 15 15 15 14 16 14 14 14 14 14 14 14 14 14 14 14 13 13 13 12 12 12
19 18 20 19 18 17 16 16 16 15 16 16 15 15 14 14 14 14 14 14 14 14 15 14 14 16 14 14 13 13 13 13 13 13 14 14 13 13 13 13 13 12 12
20 18 17 18 18 17 16 16 15 15 15 15 15 15 14 14 14 14 14 14 14 14 13 13 13 14 13 14 13 13 13 13 13 13 13 13 14 14 13 13 12 12 12
19 17 16 17 17 17 16 15 15 15 14 14 14 14 14 14 14 14 14 14 14 14 13 14 13 14 13 13 13 13 13 13 13 13 13 13 13 13 13 12 12 12 12
17 16 16 16 16 16 15 15 14 14 14 14 14 14 14 14 14 14 14 14 14 13 13 13 13 13 14 14 13 13 12 13 13 13 13 13 13 12 12 12 12 12 12
16 15 15 15 15 15 15 14 14 15 14 14 14 14 14 14 13 13 14 14 13 13 13 13 13 13 12 13 13 12 12 11 12 12 12 12 12 12 12 12 12 13 12
14 15 14 15 14 14 14 14 14 14 14 14 14 14 14 14 14 14 14 13 13 12 12 12 13 13 13 12 15 14 15 13 12 12 12 12 12 12 12 12 12 12 12
14 14 14 14 14 14 14 14 14 14 14 14 14 14 14 14 13 13 13 13 13 12 12 12 13 14 13 13 14 16 15 16 14 12 12 12 12 12 12 12 12 12 12
14 13 13 13 13 13 13 13 13 14 14 14 14 14 14 14 13 13 13 13 13 12 12 12 13 14 13 13 14 14 15 15 17 15 13 13 12 12 12 12 12 12 14
14 13 13 14 13 13 13 13 13 14 14 14 15 14 13 13 13 13 13 12 12 12 12 12 13 14 14 14 14 14 14 14 14 17 17 14 12 13 13 12 14 13 14
14 12 13 14 12 13 13 13 13 13 13 13 14 13 13 13 12 12 12 12 11 11 11 12 13 13 14 14 15 14 15 17 16 16 16 16 15 14 13 14 15 15 15

GFSSE_925_temp_114.txt.gz
Temp
27 25 25 25 24 22 22 22 22 22 22 22 21 22 21 20 20 20 20 20 20 20 19 19 19 19 18 19 19 19 19 18 18 18 18 18 17 18 18 19 19 18 18
28 24 26 25 23 21 21 21 22 22 22 21 21 21 21 20 19 20 20 20 20 19 19 19 19 19 18 19 19 19 18 18 18 18 18 18 18 17 18 18 19 17 18
27 24 25 24 22 19 20 21 21 22 21 20 20 20 20 19 19 20 20 20 20 19 19 19 19 18 18 19 19 18 18 18 18 18 19 20 18 17 18 18 18 17 17
26 24 23 23 22 20 20 21 21 21 21 19 20 20 20 19 19 19 19 20 19 19 19 18 18 18 19 18 18 18 18 18 18 19 20 19 18 16 17 17 17 17 17
26 25 22 23 23 21 20 21 21 19 19 19 20 20 20 20 19 20 18 19 19 19 19 18 18 18 18 18 18 18 18 18 18 20 20 19 19 17 16 17 17 17 17
25 24 21 23 23 20 20 20 20 19 19 19 20 20 20 19 19 19 19 19 19 19 19 19 18 18 18 18 18 18 18 18 20 20 19 18 18 16 16 17 17 17 16
25 23 22 23 22 19 19 20 20 19 19 20 21 20 20 19 17 17 18 18 19 19 19 18 18 18 18 18 18 18 18 19 21 19 19 17 17 16 16 16 16 16 16
23 22 20 22 21 18 19 19 19 20 20 20 20 20 20 20 20 19 19 19 19 19 19 18 18 18 18 18 18 18 18 19 19 19 18 17 16 15 15 16 16 15 15
22 21 20 19 18 18 18 18 19 20 20 20 20 20 19 20 19 18 19 19 19 19 18 18 18 18 18 18 17 17 18 18 18 18 17 17 15 15 15 15 15 15 15
22 22 21 20 19 18 18 18 18 19 19 20 20 20 20 19 19 18 19 19 19 19 18 19 18 19 18 17 17 17 17 18 18 18 17 16 15 15 14 14 14 14 14
22 22 21 21 20 19 19 18 18 19 19 19 19 20 20 18 18 18 18 18 19 18 17 18 18 18 18 17 17 17 17 18 17 18 16 16 15 15 14 14 13 13 13
23 22 22 21 20 19 18 18 18 18 18 18 18 18 19 18 18 19 18 18 18 18 18 19 18 18 17 16 16 16 17 17 18 18 16 15 15 14 14 13 13 13 13
25 22 22 21 20 18 18 18 19 18 18 18 18 17 18 18 18 18 18 17 17 17 16 16 18 16 17 17 16 17 18 18 19 18 15 15 15 14 14 13 13 13 13
26 23 21 21 20 18 18 18 18 18 17 17 17 17 17 17 17 18 19 18 17 16 16 16 16 17 17 18 18 17 17 18 18 18 15 14 15 14 14 13 13 13 13
26 24 22 21 20 18 18 18 17 17 17 17 17 17 16 17 17 18 19 18 17 16 16 16 16 16 17 17 17 17 17 17 17 18 16 14 14 14 14 13 13 12 12
26 24 22 21 20 18 17 17 17 17 17 17 16 16 16 17 17 17 18 17 16 16 15 15 15 16 16 17 17 17 17 17 17 17 17 14 14 14 13 13 13 13 12
26 24 23 21 20 18 18 17 17 17 16 16 16 16 15 16 17 16 17 17 17 15 15 14 14 16 17 17 17 17 17 17 16 16 17 15 14 14 14 13 13 13 12
28 26 23 21 20 17 18 17 17 16 16 16 15 16 15 15 16 17 16 16 15 14 14 14 15 16 17 18 17 17 17 16 16 16 17 16 15 14 13 13 13 12 12
27 26 23 21 20 17 18 17 16 16 15 15 15 15 15 15 15 15 15 15 15 14 15 14 15 17 17 18 17 17 17 16 16 16 16 16 16 16 15 13 13 12 12
25 24 22 20 19 17 16 15 16 16 15 15 15 15 15 15 14 14 14 15 14 14 15 14 15 17 17 17 18 17 17 16 16 16 16 16 16 16 16 15 13 13 12
23 22 21 20 19 15 15 15 15 15 15 15 15 14 14 14 14 14 14 14 14 14 15 14 15 17 17 17 17 16 16 15 16 16 16 16 16 15 16 15 15 15 13
23 21 21 20 19 15 15 16 16 15 14 14 14 14 14 14 14 14 14 14 14 14 14 14 15 16 17 17 17 17 16 15 15 16 16 16 16 16 15 15 15 15 15
22 21 20 20 19 16 17 16 17 16 15 15 15 14 14 14 14 14 14 14 14 13 13 13 15 16 16 16 17 18 18 19 17 16 15 16 15 15 16 15 15 14 14
21 19 19 20 19 18 18 17 18 18 17 16 16 15 14 14 14 14 13 13 13 13 13 13 14 16 16 16 17 18 19 20 19 18 16 15 15 15 15 15 15 14 14
21 18 16 17 17 17 18 18 18 18 18 17 16 16 15 14 14 14 13 13 13 13 12 13 14 15 16 17 17 17 17 18 19 20 19 17 16 16 16 15 15 15 15
19 16 15 16 16 15 16 17 17 17 16 16 16 15 15 14 13 13 13 13 12 12 12 12 13 14 16 17 16 17 18 19 19 20 21 19 18 17 17 16 15 15 15

GFSSE_925_temp_117.txt.gz
Temp
31 29 27 25 24 23 22 22 22 22 21 21 21 21 21 21 21 20 20 20 20 20 20 19 20 19 19 20 20 20 20 20 19 19 19 18 18 19 19 19 19 18 18
30 25 26 26 24 23 22 22 22 22 21 21 21 21 21 21 21 20 20 20 20 20 20 19 19 19 19 19 19 19 19 19 19 19 18 18 18 18 19 19 19 17 18
29 25 25 26 25 24 23 22 22 22 21 21 21 21 21 21 21 20 20 20 20 19 19 19 19 19 19 19 19 19 19 19 19 19 20 20 18 18 18 19 18 18 18
29 25 23 25 25 24 23 22 22 21 21 21 21 20 21 21 21 20 20 20 19 19 19 19 19 19 19 19 19 19 19 19 20 19 19 20 19 18 18 18 17 17 17
29 27 24 25 25 24 22 22 22 21 19 19 19 20 21 20 20 17 18 19 19 19 19 18 18 19 19 19 19 19 19 20 19 19 19 19 18 17 17 17 17 17 17
29 28 24 24 24 23 23 22 21 19 19 19 19 20 20 19 17 17 19 18 18 19 19 18 18 19 19 19 19 19 19 20 20 20 19 19 18 17 17 17 17 17 17
28 26 23 24 24 23 22 21 21 19 19 19 19 19 19 18 20 19 18 18 17 18 19 19 19 18 18 18 18 19 19 20 20 19 19 18 17 16 17 17 17 17 16
27 25 21 22 23 23 21 21 21 20 19 19 19 19 19 19 21 22 18 18 19 18 19 19 19 18 18 18 18 19 19 19 20 18 18 17 16 16 16 16 16 16 16
25 24 21 20 21 22 21 20 20 20 20 19 19 19 19 19 20 20 19 19 20 18 19 19 18 18 18 18 18 18 19 19 19 18 17 17 16 15 16 16 16 15 15
25 24 22 21 20 19 19 19 20 19 20 19 19 20 20 19 20 19 19 19 18 19 18 18 18 18 18 18 18 18 18 19 18 18 17 16 15 15 15 15 14 15 15
25 24 23 22 21 20 20 19 19 19 19 19 19 19 19 17 18 18 18 19 19 18 18 19 19 19 18 18 18 18 18 19 18 17 16 16 16 15 14 14 14 14 14
26 25 24 23 22 21 20 19 18 19 19 19 19 19 18 19 19 19 19 18 19 19 19 19 19 19 18 17 17 17 18 18 18 17 16 15 15 15 14 14 13 14 14
27 26 25 23 23 22 19 19 20 20 21 20 20 20 19 19 18 19 18 18 18 18 17 18 18 18 17 17 17 17 17 18 19 18 16 15 15 14 14 13 13 13 13
29 26 25 24 23 21 20 20 21 20 21 21 20 19 18 18 18 19 20 19 17 17 17 17 17 18 17 17 17 17 18 20 21 19 15 15 14 14 14 13 13 13 13
31 28 25 24 23 20 20 21 22 20 20 21 20 19 18 18 18 19 20 18 17 16 16 17 18 17 17 17 18 18 19 20 20 19 16 15 14 14 14 13 13 13 13
30 29 26 24 23 22 19 19 20 20 19 18 18 19 18 17 17 18 18 18 17 16 16 17 17 17 17 18 19 19 19 20 19 20 16 14 14 14 14 14 14 13 13
30 29 27 25 23 23 18 18 19 20 20 18 17 18 18 17 17 17 18 17 17 16 15 16 15 16 17 18 18 19 19 19 19 19 17 15 14 14 14 14 14 13 13
31 29 27 26 24 22 21 20 20 19 19 18 17 17 18 17 17 17 17 17 17 15 15 15 15 15 16 18 19 18 19 19 18 18 18 17 16 15 14 14 14 13 13
31 30 29 26 24 22 22 21 21 19 19 19 17 16 17 16 16 17 17 16 16 16 15 14 14 16 15 17 18 17 18 19 18 18 18 17 16 16 14 14 13 13 13
30 29 28 27 24 22 21 20 21 20 17 17 17 17 17 16 16 16 16 16 16 15 15 14 14 15 16 18 18 17 18 18 18 18 18 18 17 17 17 14 13 13 13
30 28 26 26 24 22 21 20 18 18 16 16 16 16 16 16 15 16 16 15 15 15 14 15 14 15 17 19 18 17 17 17 18 18 18 18 18 18 18 16 15 15 13
29 26 26 25 24 22 19 18 18 19 18 18 17 17 15 15 15 15 15 15 15 15 14 14 14 15 16 18 18 17 16 16 16 18 18 18 18 18 18 17 17 17 16
27 26 25 25 24 22 17 17 19 19 17 17 16 16 16 15 14 14 14 14 14 14 14 14 14 15 15 17 17 17 17 18 17 18 18 18 18 17 18 17 17 17 17
28 26 25 24 24 20 17 19 21 19 18 17 18 16 16 15 14 14 14 14 14 14 14 14 14 15 16 16 16 18 19 20 19 18 18 18 18 17 17 17 16 16 16
28 25 23 24 24 19 19 20 20 22 20 20 19 19 16 15 14 14 14 14 13 14 14 13 14 15 16 17 17 17 19 20 19 19 19 18 17 17 17 16 17 16 15
25 23 21 22 23 20 20 21 20 21 21 21 20 19 17 16 16 15 14 14 13 14 13 13 14 14 15 16 18 18 19 20 19 21 20 19 18 18 17 17 16 16 16

GFSSE_925_temp_123.txt.gz
Temp
25 26 26 27 26 24 23 23 23 23 23 23 22 22 22 22 22 22 21 21 21 21 21 20 20 20 20 20 20 20 20 20 20 20 19 19 20 19 18 18 18 18 18
27 27 27 27 26 24 23 22 22 22 21 21 22 22 22 22 21 21 20 21 21 21 21 21 20 20 20 20 20 20 20 20 20 20 19 19 18 18 19 18 18 18 18
28 27 27 27 26 24 23 23 22 22 21 21 21 21 21 21 21 20 20 20 21 21 20 20 20 20 20 20 20 20 20 20 20 19 19 18 18 18 18 18 18 18 18
29 27 27 27 26 25 23 23 22 22 21 21 21 20 20 20 20 19 19 19 19 18 19 19 19 20 20 19 20 20 19 19 19 19 18 18 18 18 18 18 18 18 17
28 28 28 27 26 25 24 23 22 21 21 20 20 20 19 20 20 20 21 22 20 17 18 19 19 19 19 19 19 19 19 19 19 19 18 18 17 17 17 17 17 17 17
28 28 28 27 26 25 23 22 22 21 19 19 19 19 20 20 20 20 20 20 20 19 18 18 20 19 19 19 19 19 19 19 19 18 18 17 17 17 16 17 17 17 17
27 26 27 26 26 24 23 22 21 22 19 19 19 19 20 20 20 19 19 20 21 20 19 18 19 19 19 19 19 19 19 19 18 18 18 17 17 17 17 17 17 16 16
28 26 26 26 25 24 23 22 21 20 19 19 19 20 20 20 20 19 19 20 20 19 19 18 18 19 19 19 19 19 19 18 18 18 18 17 17 17 16 17 16 16 16
27 26 25 26 25 24 22 21 20 20 19 19 20 20 19 20 21 19 19 19 19 19 19 18 18 19 19 19 19 19 19 18 18 18 18 17 16 16 16 16 16 16 16
26 26 25 25 25 23 21 20 20 19 20 20 19 19 19 20 20 20 19 19 19 19 19 18 18 19 19 19 18 18 18 18 18 18 18 16 16 16 16 15 15 15 15
24 25 25 25 24 22 21 20 19 19 19 19 19 19 19 19 20 19 19 19 19 19 19 19 19 19 19 19 18 19 18 18 18 17 17 16 16 15 15 15 14 15 14
23 24 24 24 23 22 21 21 20 19 19 19 19 18 18 19 19 19 19 18 18 18 18 19 19 19 19 19 19 18 18 17 17 17 16 16 15 15 14 14 14 14 14
24 24 23 23 22 21 21 21 20 19 19 18 19 19 18 18 18 19 18 18 18 18 18 18 19 19 19 19 19 17 17 17 17 17 16 16 16 15 14 14 14 14 14
24 24 24 23 22 21 20 20 20 20 19 18 18 19 18 18 18 18 18 18 18 18 18 18 19 18 18 18 19 18 17 17 17 17 16 16 15 15 15 14 13 13 13
24 24 24 23 22 22 21 20 20 19 19 19 18 19 19 18 18 18 18 18 18 18 18 18 18 18 18 18 18 18 18 17 17 16 15 15 15 14 14 14 14 13 13
25 24 24 24 23 22 21 21 20 20 20 20 20 19 19 18 18 18 18 17 18 18 18 18 18 18 17 18 18 18 18 17 17 16 15 15 15 14 15 14 14 13 13
27 25 24 24 23 23 22 21 21 20 21 20 20 20 19 19 18 18 18 17 18 18 18 18 18 18 18 17 18 18 18 18 17 16 15 14 14 14 14 14 14 13 13
30 25 25 24 24 23 22 21 21 21 20 21 20 20 19 19 19 18 18 18 18 17 18 17 17 17 17 16 17 19 17 17 17 16 15 14 14 14 14 14 14 13 13
30 27 25 24 23 23 22 22 21 21 20 20 20 19 19 19 18 18 18 18 18 17 17 17 17 17 16 16 16 17 17 17 17 16 15 15 14 14 14 14 14 13 13
30 29 26 24 22 22 22 21 21 20 20 20 20 20 18 18 18 18 18 17 17 17 17 16 17 17 17 16 15 15 17 17 17 16 15 15 14 14 14 14 13 13 13
30 29 24 23 22 21 19 19 19 19 20 19 19 19 18 18 17 17 17 17 17 17 16 16 16 16 15 16 14 14 15 17 16 16 16 15 15 14 14 14 13 13 13
29 29 24 23 22 21 20 20 19 19 19 19 19 19 19 18 18 17 17 16 16 15 15 15 15 14 14 15 14 14 14 16 17 16 15 15 15 15 14 14 14 13 13
27 27 26 24 23 22 21 20 20 19 18 18 19 19 18 18 17 17 16 16 16 15 15 15 15 14 14 14 15 15 13 14 16 16 16 16 15 15 15 15 14 14 14
28 27 27 26 24 22 21 20 20 19 17 17 17 18 18 17 17 17 17 16 16 15 15 15 15 14 14 14 14 15 16 17 16 15 17 16 16 15 15 15 15 15 15
28 26 27 26 24 22 22 21 20 18 18 18 18 18 18 17 16 16 16 16 16 15 15 14 14 14 14 14 14 14 15 16 17 16 15 15 16 16 16 16 16 16 15
25 23 25 25 24 23 22 20 19 19 19 18 17 17 17 17 16 16 16 16 16 15 15 14 14 14 14 14 14 14 14 15 16 16 15 16 16 16 16 16 16 16 16

GFSSE_925_temp_126.txt.gz
Temp
23 24 23 24 24 24 24 24 23 23 22 22 22 22 22 22 21 21 21 21 21 21 21 21 21 20 20 20 20 20 21 20 20 19 19 18 18 18 19 18 18 18 18
26 25 24 24 24 24 24 23 23 23 22 22 21 21 21 21 21 20 20 20 20 21 21 21 21 20 20 20 20 20 20 20 19 19 18 19 18 18 18 18 18 18 18
27 26 25 25 25 24 24 23 23 23 22 22 21 21 20 20 20 20 20 20 20 20 20 20 20 20 20 20 20 20 20 19 19 18 18 18 18 17 18 18 18 18 18
28 26 25 25 25 24 23 23 23 22 22 21 20 21 20 20 20 20 20 21 20 20 20 20 20 20 20 20 19 19 19 19 19 18 18 18 17 18 18 18 18 18 17
28 26 25 26 25 24 23 23 22 22 21 21 21 20 20 20 21 21 20 20 21 21 20 19 20 20 20 19 19 19 19 19 19 18 18 18 17 17 17 17 17 17 17
27 25 26 27 26 25 24 23 22 22 21 20 20 20 20 20 20 20 20 20 21 21 21 20 19 20 19 19 19 18 18 19 19 18 18 17 17 17 17 17 17 17 17
26 26 26 27 26 25 24 23 23 22 20 20 20 20 20 20 20 20 20 20 21 21 20 19 18 19 19 19 19 18 18 18 18 18 18 17 17 17 17 17 17 17 16
27 26 26 26 26 25 24 23 22 22 20 19 20 20 20 20 20 20 20 19 20 22 21 19 18 19 19 19 18 18 18 18 18 18 18 17 17 17 16 16 16 16 16
28 27 26 26 25 24 24 23 22 22 19 19 20 20 20 20 20 19 19 20 20 20 20 19 18 19 19 19 19 18 18 19 18 18 18 17 17 16 16 16 16 16 16
26 26 25 25 24 22 22 22 22 21 20 19 20 20 20 20 20 20 19 19 19 20 19 19 19 19 19 19 19 18 18 19 18 17 17 17 17 16 16 16 15 15 15
23 25 24 24 23 22 21 21 21 20 20 20 19 19 19 20 20 20 19 19 19 19 19 19 19 18 19 18 19 18 18 18 18 17 17 17 16 16 16 15 15 15 14
22 23 24 23 23 21 20 20 20 20 19 19 19 19 19 20 19 20 19 19 19 19 19 19 18 18 18 18 19 18 18 18 17 17 17 16 16 16 15 15 15 14 14
24 23 23 23 23 22 21 20 19 19 19 19 19 19 19 19 19 19 19 19 19 18 18 18 18 18 18 18 18 18 18 18 17 17 16 16 16 16 15 14 14 14 13
23 24 24 23 23 21 21 20 20 19 19 18 18 19 19 18 19 18 18 18 18 18 18 18 18 18 18 18 18 17 17 18 17 16 16 16 16 16 15 14 14 14 13
23 23 24 23 23 22 21 20 20 19 19 19 18 18 18 18 18 18 18 18 18 18 18 18 19 18 18 18 18 18 18 18 17 16 16 16 16 15 15 14 14 14 13
24 24 24 23 22 22 21 21 20 20 19 19 19 18 18 18 18 18 18 17 18 18 18 18 18 18 18 18 18 18 18 18 17 16 16 15 15 15 15 14 14 13 13
24 25 23 23 22 22 21 20 20 20 20 19 18 19 18 18 18 18 18 18 18 18 18 18 18 18 18 17 18 17 17 16 17 16 16 15 15 14 14 14 14 14 14
24 23 25 23 22 21 21 21 20 20 20 19 19 19 18 18 18 18 18 18 18 17 18 18 18 17 17 17 17 17 17 16 17 16 16 15 14 14 14 14 14 14 13
27 25 24 23 22 22 21 21 20 20 20 20 19 19 19 19 18 18 18 18 17 17 17 18 17 17 17 16 16 16 15 16 17 16 15 15 14 14 14 14 14 13 13
28 27 25 23 23 21 20 19 19 20 20 20 20 19 19 18 18 18 18 17 17 17 17 17 17 16 17 16 15 14 15 14 14 16 16 15 14 14 14 14 14 13 13
28 26 25 22 22 20 18 18 18 19 20 20 20 20 19 19 18 18 18 17 17 17 17 17 16 16 15 16 14 14 14 13 13 15 15 14 14 14 14 14 13 13 13
26 26 24 22 22 20 20 19 19 19 19 19 19 19 19 18 18 18 18 17 17 16 16 16 16 14 15 15 14 14 13 13 13 12 13 14 14 14 14 14 13 13 13
25 25 23 22 21 20 20 18 19 18 17 17 18 19 19 19 18 18 18 18 17 16 15 15 15 15 15 14 15 15 13 14 14 13 12 14 14 14 14 14 13 13 13
23 24 24 22 20 20 19 18 18 18 17 18 17 17 18 19 18 18 18 17 17 16 15 14 15 15 14 14 14 16 17 16 15 13 13 13 14 14 15 14 13 13 13
26 24 22 22 20 20 19 19 18 18 18 18 16 17 17 19 18 17 17 17 17 15 15 14 14 14 14 14 14 14 15 16 17 16 14 12 12 13 15 15 14 14 14
22 21 20 20 20 19 19 19 19 18 17 16 16 16 16 17 17 17 16 16 17 16 15 15 14 14 14 14 14 15 15 15 15 16 15 14 14 13 14 15 15 15 15

GFSSE_925_temp_132.txt.gz
Temp
24 24 23 24 23 23 23 23 23 23 23 23 23 23 23 23 22 22 22 21 21 20 20 20 20 21 21 20 20 20 20 20 20 20 19 18 20 19 19 18 18 18 18
26 24 23 23 23 23 23 23 23 23 23 22 22 23 23 22 22 22 21 21 20 20 20 20 20 20 21 21 20 20 20 20 20 20 20 18 19 18 18 18 18 18 18
25 24 23 23 23 22 22 22 22 22 22 22 22 22 22 22 21 21 21 20 20 20 20 20 20 20 20 20 20 20 20 20 20 20 20 18 19 18 18 18 18 18 18
26 24 24 23 22 22 22 22 22 22 22 21 22 21 21 21 21 21 20 20 20 20 20 20 20 20 20 20 20 20 20 19 19 19 18 18 18 17 18 18 18 18 18
26 25 24 23 22 22 22 22 22 22 22 22 21 21 21 21 20 20 20 20 20 20 20 20 20 20 20 20 20 20 19 19 19 19 18 17 17 17 17 17 17 17 17
25 24 24 23 23 23 22 22 22 21 21 21 21 21 20 20 20 20 20 20 20 20 20 20 20 20 20 20 20 20 19 19 19 18 17 17 17 17 17 17 17 17 17
25 24 23 24 23 23 22 22 22 22 21 21 21 21 20 20 20 20 19 19 19 20 19 20 20 19 19 19 19 19 19 19 18 18 17 17 17 17 17 17 17 17 17
24 23 24 24 24 23 22 23 22 22 22 21 21 20 20 20 20 20 19 19 19 20 20 20 19 19 19 19 19 18 18 19 18 18 17 17 17 17 16 17 17 16 16
22 22 22 22 22 22 23 23 23 22 22 21 21 20 20 20 20 19 19 19 19 19 20 19 19 19 19 19 18 18 18 18 18 18 18 17 17 17 16 16 16 16 16
21 22 22 22 21 21 22 23 23 22 22 21 21 20 20 19 19 19 19 19 19 19 19 19 19 18 18 18 19 18 19 18 19 18 18 18 17 17 16 16 15 16 15
19 21 22 21 20 20 21 22 22 23 22 21 20 20 19 19 19 19 18 18 19 19 19 19 19 18 19 18 18 18 18 18 18 18 18 17 17 16 16 16 15 15 15
17 16 17 17 18 20 20 20 21 21 21 20 20 20 19 19 19 18 18 18 19 18 19 19 19 18 18 18 18 18 18 18 18 18 18 17 17 16 16 16 15 15 14
19 18 16 17 17 18 18 19 20 20 20 20 20 20 19 19 19 18 18 18 18 17 18 18 18 18 18 18 18 18 19 18 18 18 17 17 17 16 17 16 15 15 14
21 20 18 17 17 17 17 17 19 20 19 19 20 20 19 19 19 18 18 18 18 18 18 18 18 18 18 18 18 18 18 18 18 18 17 17 17 16 16 16 15 15 14
23 22 21 19 17 17 17 17 17 17 17 17 19 19 19 19 19 19 18 18 18 18 17 18 18 17 17 17 18 18 18 18 18 18 17 16 17 16 16 16 15 15 14
24 24 24 22 20 17 17 17 16 17 17 18 18 19 19 19 20 19 18 18 18 18 18 18 18 17 17 17 17 17 18 18 18 18 17 17 16 16 16 16 15 14 14
26 25 24 24 24 20 17 16 17 16 16 17 17 18 19 19 19 19 18 18 17 18 18 17 18 17 17 17 17 16 18 18 18 17 16 16 16 16 16 15 15 15 14
25 25 23 23 22 22 19 17 17 16 16 17 17 17 18 18 18 19 18 18 17 17 17 17 17 17 16 16 17 16 16 17 17 16 16 15 16 16 15 15 15 15 15
23 26 25 22 21 20 19 18 17 16 16 17 17 17 17 18 18 18 18 18 18 17 17 17 17 17 16 15 16 16 16 16 16 16 15 15 15 16 15 15 15 15 14
22 23 25 22 20 19 18 17 16 16 16 16 16 17 17 17 18 18 18 18 17 17 17 16 16 16 16 16 14 15 15 15 14 15 15 15 15 14 15 15 14 14 14
22 22 22 21 20 17 17 17 16 16 16 16 16 17 17 17 17 18 18 17 17 17 16 16 16 16 15 14 14 13 13 14 14 14 15 14 14 14 14 14 14 14 14
22 23 21 21 19 18 18 17 17 17 16 16 16 16 16 17 17 18 18 17 17 16 15 16 16 15 15 14 14 14 13 13 13 13 14 14 14 14 14 14 14 14 14
20 21 23 23 20 19 18 17 18 17 17 16 16 16 17 16 17 18 18 18 17 16 15 15 16 16 14 14 15 15 13 14 12 12 13 13 13 14 14 14 13 13 13
20 22 22 23 22 20 18 18 18 18 18 17 17 16 16 17 17 18 18 17 17 16 15 15 15 15 15 14 14 16 15 15 12 12 12 13 13 13 13 14 13 13 13
21 21 22 23 22 20 18 18 18 18 18 18 17 17 16 16 17 18 17 17 18 17 16 16 15 15 15 15 14 14 14 14 15 13 12 12 12 12 13 13 13 13 13
20 21 22 22 21 20 18 18 18 18 18 17 17 17 16 16 16 17 17 17 17 17 17 17 17 16 15 15 15 15 15 14 13 14 13 13 13 12 12 13 12 13 13

GFSSE_925_temp_138.txt.gz
Temp
27 24 24 24 24 23 24 24 24 24 24 23 23 23 22 22 22 21 21 21 20 20 20 20 21 21 21 21 20 20 20 20 20 20 20 20 19 18 17 18 19 19 19
27 23 24 24 23 23 24 24 24 24 24 23 22 22 22 22 21 21 21 20 20 20 21 20 21 21 20 20 20 20 20 20 20 20 20 19 19 19 18 17 19 18 18
26 23 23 24 24 23 23 23 23 23 23 23 23 22 22 22 22 21 21 20 20 20 20 20 21 20 20 20 20 20 20 20 20 20 20 19 18 19 18 18 19 18 18
25 23 22 23 23 23 23 23 23 23 23 23 23 22 22 22 21 21 21 20 20 20 20 20 20 20 20 20 20 20 19 20 20 20 20 19 17 17 18 18 18 18 18
25 24 23 23 23 23 23 22 22 22 23 23 22 22 22 22 21 21 21 20 20 20 20 20 20 20 20 20 19 19 19 20 20 20 21 20 18 17 18 18 18 18 18
24 24 22 22 23 23 23 23 22 22 22 22 22 22 22 21 21 21 20 20 20 20 20 20 20 20 20 20 19 19 19 20 20 20 19 18 18 18 18 18 18 18 17
24 23 21 22 22 23 23 22 22 22 22 22 22 22 21 21 21 21 20 20 20 20 20 20 20 20 20 20 19 19 19 20 21 21 20 19 18 18 18 18 18 17 17
23 22 21 21 22 22 22 22 22 22 22 21 21 21 21 21 21 20 20 20 20 20 20 20 20 20 20 19 20 19 19 19 20 21 20 19 18 17 17 18 17 17 17
21 21 21 20 20 21 21 21 21 21 21 21 21 21 20 20 20 20 20 20 20 20 20 20 20 19 20 19 19 19 19 19 19 19 20 19 17 17 17 17 17 17 16
22 21 21 21 20 20 19 19 20 20 20 20 20 20 20 20 20 20 20 20 20 20 20 20 19 19 19 19 19 19 19 19 20 20 19 18 17 17 17 17 17 16 17
22 21 21 21 20 19 19 19 19 19 19 19 19 19 19 19 19 19 19 19 19 20 20 19 19 19 19 19 19 19 19 21 19 20 20 18 17 16 16 16 16 16 16
24 22 22 21 21 19 18 18 18 18 19 19 19 18 19 20 20 20 19 19 19 19 19 19 19 19 19 18 18 18 19 20 20 20 20 18 17 16 17 17 16 16 16
25 23 22 21 20 20 19 18 18 18 18 20 20 19 20 20 20 20 19 18 19 19 19 19 19 18 19 18 18 18 18 19 18 20 19 18 17 16 16 16 16 16 15
24 24 22 22 20 20 21 19 18 17 18 18 18 18 20 19 19 20 20 20 20 20 20 20 19 18 18 18 18 18 18 18 18 20 18 17 18 17 16 16 16 16 16
24 24 24 22 21 20 19 20 18 17 17 17 17 17 19 20 20 20 20 20 20 20 20 20 20 19 18 18 18 18 18 18 18 18 18 17 17 17 16 15 16 16 16
23 23 23 23 21 21 20 20 19 18 17 17 17 17 18 20 20 20 20 20 20 20 20 20 19 19 19 18 18 18 17 18 18 18 17 17 17 17 17 16 16 16 16
22 22 23 22 22 21 20 21 20 20 18 19 17 17 17 19 19 20 20 20 20 20 19 19 18 18 19 19 18 18 17 17 17 16 17 17 16 16 16 16 16 16 16
21 21 21 22 22 21 21 21 21 22 20 21 20 17 17 18 19 19 20 20 20 19 19 19 17 16 17 17 18 17 16 16 17 16 16 16 16 15 16 16 16 16 15
21 20 20 20 21 21 21 21 21 21 21 21 20 19 17 17 18 19 20 20 19 19 19 17 17 16 16 17 16 16 16 16 17 17 16 16 16 15 15 15 16 16 15
19 20 19 19 20 20 21 20 21 20 21 21 21 20 17 16 18 18 20 19 18 19 18 17 15 18 18 17 16 15 15 16 16 16 17 15 15 15 15 15 15 15 16
18 19 20 19 19 19 21 21 21 21 21 20 21 20 18 16 17 18 19 18 16 18 17 16 17 19 19 19 16 14 14 14 14 15 16 15 14 15 14 14 15 14 15
17 18 19 19 20 20 21 22 21 21 21 21 20 19 18 17 16 18 19 18 15 17 17 16 18 19 18 17 18 18 17 14 14 15 15 15 14 14 14 15 14 15 15
14 18 19 20 20 20 21 22 21 20 20 20 20 19 19 17 16 17 18 18 16 17 16 15 18 18 17 15 19 20 20 20 19 16 15 15 15 14 14 14 14 14 15
11 12 16 19 19 20 20 22 22 20 20 20 20 19 19 18 16 16 17 18 16 17 17 15 18 18 19 16 18 19 21 22 21 18 16 14 14 15 14 14 14 14 14
7 9 11 18 19 19 20 20 22 21 20 21 20 20 19 17 16 15 16 16 16 16 17 17 16 18 18 19 18 19 19 19 20 22 20 16 13 14 16 14 14 14 14
5 6 9 17 18 19 19 20 21 21 21 22 20 19 19 18 16 15 15 16 16 16 16 16 16 17 19 18 18 19 19 19 20 20 21 20 17 15 15 14 14 13 14

GFSSE_925_temp_144.txt.gz
Temp
28 27 26 25 25 25 25 25 25 24 24 24 24 23 23 23 23 23 22 22 21 21 20 20 20 21 21 21 21 21 21 20 20 19 18 18 18 19 18 18 18 18 18
27 26 26 25 24 24 24 25 24 24 24 24 23 23 23 23 23 22 22 22 21 20 20 20 20 20 21 21 21 21 20 19 19 19 19 18 19 19 19 18 18 18 17
27 25 25 25 23 23 23 24 24 24 24 24 23 23 23 22 22 22 21 21 21 20 20 20 20 20 20 20 20 20 20 19 19 20 19 18 18 18 18 19 19 17 17
28 25 23 24 23 23 23 23 24 24 24 24 23 23 22 22 22 22 21 21 21 20 20 20 20 20 20 20 20 20 20 20 20 20 19 18 17 17 19 18 18 17 17
29 27 24 23 23 23 23 23 23 23 23 24 23 23 22 22 22 21 21 21 21 20 20 20 20 20 20 20 20 20 20 20 21 20 20 19 18 17 19 18 18 18 18
28 27 25 24 23 22 22 22 22 22 23 23 23 22 22 22 22 21 21 21 21 20 20 20 20 20 20 20 20 20 20 20 20 20 19 19 18 18 18 18 18 18 18
25 25 24 23 23 22 22 22 22 22 22 22 22 22 21 21 21 21 21 21 20 20 20 20 20 20 20 20 20 20 20 20 20 19 20 19 18 19 18 18 18 18 17
25 24 23 22 22 22 21 22 21 21 21 21 21 21 21 21 21 21 21 20 20 20 20 20 20 20 20 20 20 20 20 20 19 19 18 19 18 18 17 18 18 18 17
25 25 24 22 21 21 21 21 21 21 21 21 21 20 21 21 20 21 21 20 20 20 19 20 20 20 20 20 20 19 20 19 19 18 16 19 18 18 18 18 18 17 17
25 24 24 22 21 20 21 21 21 21 20 21 21 20 20 20 20 20 20 20 20 20 19 19 19 19 20 20 20 20 20 19 19 17 19 21 18 18 18 18 18 17 17
27 25 24 24 22 21 20 21 20 20 21 20 20 20 20 20 20 20 20 19 20 19 19 19 19 19 19 19 19 20 19 20 20 19 19 18 18 17 18 18 17 17 16
27 27 25 24 24 22 22 21 20 20 21 21 20 20 20 20 20 20 20 20 19 19 19 19 19 19 19 19 19 19 19 19 19 17 20 19 18 17 17 17 17 17 16
26 26 26 25 24 23 22 22 20 20 20 20 20 20 20 20 21 21 21 21 19 19 19 19 19 19 19 19 19 19 19 19 19 17 20 19 18 17 16 17 17 16 16
25 25 24 24 24 23 23 23 22 21 21 21 20 20 20 20 21 21 22 21 20 19 19 19 19 19 19 19 19 20 19 18 19 19 17 19 18 17 16 16 16 16 16
24 24 24 24 23 23 23 23 23 22 22 21 22 21 21 20 21 21 22 21 21 20 21 20 20 19 19 19 19 20 19 19 19 18 18 18 18 18 16 15 16 16 16
24 23 22 22 22 22 23 23 23 22 22 21 21 20 21 21 21 21 22 22 21 21 22 21 21 20 19 19 19 20 19 19 18 18 19 18 18 17 17 16 16 15 15
22 21 19 19 19 19 19 21 22 23 22 21 20 20 20 20 21 21 22 22 22 22 22 21 21 20 19 19 19 19 19 19 18 18 18 17 17 17 17 16 16 16 15
16 16 16 16 16 17 18 19 20 21 22 22 21 19 19 19 21 22 22 22 22 22 23 22 21 20 19 19 19 19 19 19 18 18 18 18 17 17 17 16 16 16 16
15 13 12 13 13 15 15 15 18 20 21 22 21 20 19 19 20 21 22 22 22 22 22 21 21 20 19 19 20 20 20 19 18 18 18 17 17 17 16 16 16 16 15
13 11 11 11 11 12 12 13 15 19 20 20 21 21 20 18 20 20 21 22 22 22 21 21 20 20 19 19 20 20 19 18 18 18 18 18 17 17 16 16 16 16 16
11 10 10 9 10 9 10 11 13 16 20 20 21 21 21 19 18 20 21 21 21 21 21 20 20 19 19 19 18 16 17 18 17 17 17 18 17 17 16 16 15 16 16
10 9 8 7 7 7 7 9 10 11 14 20 21 21 19 20 18 19 20 21 21 21 21 20 19 19 19 19 17 16 15 16 16 17 17 17 17 16 16 15 15 16 16
9 8 6 6 5 5 5 6 8 11 14 18 20 21 21 19 19 19 20 21 21 21 20 19 19 18 18 19 18 18 16 16 16 17 17 17 17 17 16 15 14 15 15
8 7 5 4 4 4 5 5 7 9 12 15 20 20 20 20 19 19 20 20 21 20 20 19 18 18 19 19 18 19 21 21 17 16 16 16 16 16 16 16 15 15 15
7 5 4 3 3 3 3 4 6 8 10 14 19 20 20 20 18 19 20 20 21 20 20 20 19 18 19 19 18 19 20 20 21 19 16 16 16 16 16 16 15 15 14
5 4 3 2 2 2 3 3 5 8 10 13 17 21 21 20 19 18 19 19 20 19 20 19 18 18 19 20 18 18 19 19 20 19 17 17 16 16 16 16 16 16 15

GFSSE_925_temp_147.txt.gz
Temp
26 26 24 25 25 25 25 25 25 25 24 24 24 24 24 24 24 23 23 22 21 21 20 20 21 20 20 20 20 21 21 21 20 20 18 18 18 18 18 18 18 17 17
27 25 24 25 25 25 25 24 24 24 24 24 24 24 24 23 23 23 22 22 21 20 20 20 20 21 20 21 20 20 20 20 20 19 18 17 19 19 19 19 18 18 18
26 26 24 24 24 25 24 24 24 24 23 23 23 23 23 23 23 23 22 22 21 20 20 20 20 20 20 21 20 20 20 20 20 19 18 18 18 18 19 19 18 18 18
26 25 24 23 24 24 24 24 24 24 23 23 23 23 22 22 22 22 22 21 21 20 20 20 20 20 20 20 20 20 20 20 20 19 19 19 18 18 19 19 18 19 17
24 25 25 24 23 23 23 23 23 23 23 23 22 22 22 22 22 22 22 21 21 20 20 20 20 20 20 20 20 20 20 20 19 18 19 19 19 18 18 19 18 17 17
23 24 25 24 24 23 22 23 23 23 23 23 22 22 21 22 21 21 21 21 21 20 20 20 20 20 20 20 20 20 20 20 19 18 18 18 19 17 18 19 18 17 17
24 23 23 23 23 23 22 22 22 22 22 22 22 22 21 21 21 21 21 21 20 20 20 20 20 20 20 20 20 20 19 19 18 18 18 19 18 18 18 18 17 17 17
24 23 23 23 22 22 23 22 22 22 22 22 22 21 21 21 21 21 21 20 20 20 20 20 20 20 20 20 19 19 19 19 19 19 18 18 19 18 18 18 18 18 17
25 23 23 23 22 21 21 22 22 21 21 21 21 21 21 21 21 21 20 20 20 20 20 20 20 20 20 20 19 19 18 18 18 19 18 18 18 18 18 17 18 17 17
25 24 23 23 22 22 21 21 21 21 21 21 21 21 21 20 20 20 20 20 20 20 19 19 19 20 20 19 20 20 18 18 19 19 19 18 18 18 18 17 17 17 17
25 25 24 23 23 22 22 21 21 20 20 21 21 21 21 20 20 20 20 20 20 20 19 19 19 19 19 19 19 20 19 19 18 19 19 18 18 17 17 17 17 17 17
24 24 24 23 22 22 22 21 21 20 20 20 20 21 21 20 20 20 20 20 20 19 19 19 19 19 19 19 19 19 19 18 18 17 17 18 18 17 17 17 17 17 16
24 24 23 23 23 22 22 21 22 22 21 20 19 20 21 21 20 20 20 20 20 19 19 19 19 19 19 19 19 19 18 18 18 18 17 16 18 17 16 17 17 17 16
21 18 19 18 19 19 20 20 20 21 21 20 20 19 20 20 21 20 20 20 20 20 20 19 19 19 19 18 19 19 18 18 19 19 18 17 18 17 16 17 17 16 16
16 16 16 17 18 18 18 19 19 19 21 21 20 20 20 20 20 20 20 21 21 21 20 20 19 19 19 19 19 19 18 19 19 18 18 18 18 18 16 16 15 16 15
14 13 14 14 16 18 17 16 16 18 19 20 21 21 20 20 20 21 21 21 21 21 21 20 20 19 19 19 19 19 19 19 19 19 18 18 18 18 17 16 15 15 15
12 12 11 12 13 14 14 15 15 15 17 18 20 22 21 20 20 20 21 21 21 21 21 20 20 20 19 19 19 19 19 19 19 18 18 18 18 18 17 16 15 15 15
12 11 11 10 10 10 10 10 12 13 14 16 18 19 21 21 20 20 20 21 21 22 21 21 20 20 20 19 19 19 19 19 19 19 18 18 17 17 17 16 16 16 15
11 10 9 9 8 8 8 8 9 10 12 13 16 18 20 20 20 20 20 21 22 22 22 21 21 20 20 19 19 19 19 19 18 18 18 18 17 17 17 16 16 16 16
10 9 8 8 7 7 6 6 6 7 9 12 13 16 19 19 20 20 20 20 21 22 22 21 21 20 20 20 19 19 19 18 18 18 18 17 17 17 17 16 16 16 16
9 8 7 7 6 5 5 5 5 5 6 8 10 12 15 19 19 19 19 19 21 21 22 21 20 20 19 19 18 16 17 18 18 17 17 17 17 18 17 16 16 15 15
8 7 6 6 5 4 4 3 4 4 5 6 8 10 12 15 19 18 18 19 20 20 21 20 20 18 18 19 17 16 15 16 16 17 17 17 17 17 17 17 16 15 15
7 6 5 5 4 3 3 3 4 4 5 6 7 10 13 15 17 19 18 19 19 20 20 20 20 19 18 17 18 17 14 14 14 16 17 17 17 17 17 17 16 15 15
7 6 4 4 3 2 2 2 3 3 4 5 6 7 9 12 15 18 18 19 20 19 19 19 19 19 19 17 16 19 20 18 14 14 15 17 17 16 16 16 16 15 15
6 5 3 3 3 2 1 2 2 3 4 4 5 7 9 11 13 17 18 18 18 19 19 19 18 18 18 18 17 18 19 19 19 14 14 14 16 16 16 17 17 16 15
5 4 2 3 2 1 1 2 2 3 3 4 5 7 8 10 13 16 18 17 17 15 19 19 18 18 18 18 17 17 19 19 17 16 14 14 15 15 16 16 16 17 16

GFSSE_925_temp_153.txt.gz
Temp
24 23 23 23 24 24 24 24 24 24 24 24 23 23 23 23 23 22 22 21 21 20 20 20 20 20 21 21 21 21 20 20 19 19 18 18 17 18 18 19 18 18 18
25 23 23 23 24 24 24 24 24 24 24 23 23 23 22 22 22 22 21 21 21 20 20 20 20 20 21 21 21 20 20 19 19 18 18 17 17 17 18 18 18 18 18
24 23 22 22 23 23 23 23 23 23 23 23 23 22 22 22 22 22 21 21 21 21 20 20 20 20 21 21 21 20 19 19 19 18 18 17 18 17 18 18 19 18 18
23 23 22 22 23 23 23 22 23 23 23 22 22 22 22 22 21 22 21 21 20 21 20 20 20 20 20 21 20 20 19 19 18 18 17 18 17 18 18 18 19 18 19
23 23 22 22 22 23 23 22 22 22 22 22 22 21 21 21 21 21 21 21 20 20 20 20 20 20 20 20 20 19 19 19 18 18 18 18 18 18 18 18 18 18 18
23 23 22 22 22 22 22 22 22 22 22 22 22 21 21 20 20 21 21 21 20 20 20 20 20 20 20 20 20 19 19 18 18 18 18 18 18 18 18 18 18 18 18
22 22 22 22 22 21 21 22 21 21 21 21 21 21 21 20 20 20 20 21 20 20 20 20 20 20 19 19 19 19 18 19 18 18 18 18 18 18 18 18 18 18 18
20 19 19 19 20 20 21 21 21 21 20 20 20 20 20 20 20 20 20 20 20 20 20 20 20 20 20 19 19 19 19 19 18 18 18 18 18 18 18 18 18 18 18
19 19 18 18 18 18 18 19 20 21 21 21 20 19 19 19 20 20 20 20 20 20 20 20 20 20 20 19 19 19 18 19 19 18 18 18 18 18 18 18 18 19 17
18 18 18 18 18 18 18 18 18 18 18 20 21 21 20 19 19 19 20 20 20 20 20 20 19 19 20 19 19 18 18 18 18 18 18 18 19 18 18 18 18 18 17
17 17 17 18 18 18 19 18 18 18 17 17 17 18 20 20 19 19 19 19 20 20 20 20 19 19 19 19 19 18 19 18 18 18 18 18 18 18 18 18 17 18 17
14 14 15 17 17 18 18 18 19 18 17 17 18 17 17 18 19 19 18 19 19 19 19 19 19 19 19 19 18 18 19 18 18 18 18 18 18 18 18 17 17 17 17
11 13 14 15 16 17 17 17 17 17 18 18 19 18 18 18 18 18 19 18 18 18 19 19 19 19 19 19 19 18 19 18 18 18 18 18 18 18 18 17 17 17 17
12 12 13 15 15 15 16 16 16 15 16 17 17 18 17 17 17 18 19 19 18 18 18 18 18 19 19 19 18 18 19 18 18 18 18 18 18 18 18 17 17 16 16
11 11 12 13 14 14 15 14 15 14 14 14 15 16 16 17 16 16 17 19 19 19 18 18 18 19 19 19 18 18 18 18 19 19 18 18 18 18 18 17 16 16 16
9 9 10 10 11 12 13 13 13 13 13 13 13 13 14 14 15 15 16 17 19 20 19 18 18 19 19 19 19 18 18 18 18 19 18 18 18 18 18 17 16 16 15
9 9 10 10 10 10 10 11 11 11 10 11 12 12 11 11 11 13 15 16 17 19 20 19 19 18 18 18 18 18 18 18 18 18 18 18 17 17 18 17 16 15 15
8 9 10 10 10 9 8 9 9 9 8 8 8 9 10 9 9 10 12 14 16 17 18 20 20 19 18 17 18 18 17 18 18 18 18 18 17 17 17 17 16 16 15
8 9 10 9 8 8 8 7 6 6 6 6 6 5 6 7 8 7 9 13 14 16 17 18 20 19 18 17 18 18 17 18 18 18 18 17 17 17 17 16 16 16 16
8 8 8 7 6 5 5 5 5 4 4 4 4 4 5 5 7 6 6 9 13 14 16 16 17 19 18 19 18 18 18 18 18 18 18 18 17 17 18 17 16 15 16
7 6 5 5 6 4 3 3 3 3 4 4 4 4 4 5 5 5 5 7 9 12 14 16 16 16 17 18 17 15 15 16 17 17 17 17 17 17 17 17 16 16 15
5 5 5 5 5 3 2 2 2 2 2 2 3 3 4 4 5 5 5 5 7 9 12 15 16 16 16 16 17 16 15 15 15 16 15 16 16 16 16 17 17 16 15
5 4 4 4 4 3 2 2 1 2 2 3 3 3 3 3 4 5 5 5 5 7 9 13 15 16 16 15 17 17 15 16 15 15 15 15 15 15 16 16 16 16 16
4 4 4 4 3 2 2 1 1 1 2 2 2 3 3 3 4 4 5 5 5 6 8 10 14 15 17 16 15 17 20 18 15 15 15 15 15 15 15 15 15 16 16
4 3 3 2 2 2 1 1 1 1 1 2 2 3 3 3 4 4 5 6 6 6 7 9 13 15 16 17 16 17 17 16 18 14 15 15 14 14 14 15 15 15 16
3 3 2 1 1 1 1 1 1 1 1 2 2 2 3 3 3 4 5 6 6 7 7 8 11 14 15 16 17 18 17 17 14 14 13 16 16 15 15 15 15 15 15

GFSSE_925_temp_156.txt.gz
Temp
23 23 23 23 23 23 23 23 23 23 23 23 23 23 22 22 22 22 21 21 21 20 20 20 20 20 21 21 20 20 20 20 19 19 18 18 18 18 18 18 18 18 18
23 22 22 22 22 22 22 22 22 22 22 22 22 22 22 22 21 21 21 21 21 20 20 20 20 20 20 21 20 20 20 19 19 19 18 18 18 17 18 18 18 18 18
21 21 22 22 22 22 22 22 22 22 22 22 22 22 21 21 21 21 21 21 21 21 20 20 20 20 20 20 20 20 20 19 19 19 18 17 17 17 18 18 18 18 18
22 22 22 22 22 22 22 22 22 21 21 21 21 21 21 21 20 20 20 20 20 20 20 20 20 20 20 20 20 20 19 19 18 18 17 17 17 18 18 18 18 18 18
21 21 21 21 21 21 21 21 21 21 20 21 20 20 20 20 20 20 20 20 20 20 20 20 20 20 20 20 20 19 19 18 18 18 18 17 17 18 18 18 18 18 18
20 19 19 19 19 19 20 20 21 21 20 20 20 20 20 20 20 20 20 20 20 20 20 20 20 20 20 20 19 19 18 19 19 18 18 18 18 18 18 18 18 19 18
18 18 18 18 18 18 18 18 19 19 20 21 20 20 19 19 19 19 20 20 20 20 20 20 20 20 20 19 19 19 18 19 19 18 18 18 18 18 18 18 18 18 18
18 18 18 18 18 18 18 18 18 18 18 18 18 20 20 20 19 19 19 19 20 20 20 20 20 20 20 19 19 19 18 19 18 18 18 18 18 18 18 18 18 18 18
18 19 19 19 18 18 18 18 17 17 17 18 18 18 18 19 19 19 19 19 19 19 20 19 19 20 19 19 19 19 19 18 18 18 18 18 18 18 17 18 18 18 18
18 18 18 19 19 19 19 18 18 18 18 17 17 18 18 18 18 19 19 19 19 19 19 20 19 19 19 19 19 18 18 18 18 18 18 18 18 18 18 18 18 18 18
16 16 17 18 18 19 19 19 19 19 19 19 19 18 18 18 18 18 18 19 19 19 19 19 19 19 19 18 18 18 18 18 18 18 18 18 18 18 18 18 18 17 18
14 14 16 17 18 18 18 18 18 18 18 18 18 19 19 19 18 18 18 18 19 19 18 19 19 19 19 18 18 18 18 18 17 18 18 18 18 18 18 17 18 17 18
11 11 13 15 16 17 17 17 17 16 17 17 17 17 18 18 18 19 18 18 18 19 19 18 18 18 18 18 18 19 18 18 18 18 18 18 18 18 17 17 17 16 17
10 11 12 13 15 15 15 15 15 15 15 15 15 15 15 16 17 17 17 18 18 18 19 19 19 18 18 18 18 18 19 19 18 18 18 18 18 17 17 17 17 16 17
9 10 10 12 13 13 14 14 14 15 14 14 13 12 12 13 13 14 15 15 17 18 18 19 19 19 18 18 18 18 18 18 19 18 18 18 18 18 17 17 17 16 16
9 9 9 11 12 13 13 13 12 12 12 12 12 11 11 11 11 11 12 15 15 16 17 17 19 19 19 19 19 18 18 18 18 18 18 18 18 18 17 17 17 16 16
8 8 10 11 12 13 12 12 12 10 9 10 10 10 9 9 9 9 11 12 13 14 16 16 17 18 19 19 19 18 17 18 18 18 18 18 18 18 17 17 17 17 16
7 8 9 9 9 9 10 11 11 11 9 9 8 8 7 7 7 7 7 9 11 12 13 16 16 17 16 17 19 18 17 17 17 18 17 17 17 17 17 17 17 16 16
7 7 7 6 7 8 9 10 10 9 8 7 7 6 6 6 6 6 6 6 8 9 12 13 15 16 16 16 17 19 18 16 17 17 17 17 17 17 17 17 17 17 16
7 7 6 6 6 7 8 8 8 7 6 5 5 5 5 4 5 5 5 5 5 6 8 11 13 15 16 16 16 17 17 16 16 17 18 17 17 17 17 17 17 17 16
6 6 5 5 5 6 6 4 5 3 5 5 5 4 4 4 4 4 5 5 5 5 6 8 10 13 15 15 15 15 15 15 16 16 17 17 17 17 17 17 17 17 16
4 4 4 5 6 5 4 3 2 1 2 3 3 3 4 4 4 4 5 5 5 5 5 6 8 10 15 15 16 15 15 15 14 14 16 15 16 17 16 16 17 17 16
4 4 4 4 4 4 3 3 2 2 2 2 2 2 2 3 3 3 4 4 5 5 5 5 7 8 11 16 15 16 15 17 16 15 15 14 15 15 15 15 15 16 16
3 4 4 4 4 3 3 2 1 1 2 2 2 2 2 2 3 3 4 4 5 5 5 5 6 7 9 13 16 15 18 18 16 15 15 14 15 15 15 15 15 16 15
4 3 3 3 3 3 3 1 1 0 0 1 2 2 2 2 2 3 3 4 4 5 6 6 6 7 8 10 14 16 15 16 17 14 15 15 14 14 14 14 15 15 15
3 3 3 2 3 3 2 1 1 0 -0 1 1 2 2 2 2 2 2 3 3 4 5 6 6 7 7 8 10 15 16 16 17 16 14 16 16 15 14 14 14 14 14

GFSSE_925_temp_162.txt.gz
Temp
24 22 20 21 21 21 21 22 22 22 22 22 22 22 22 22 22 22 21 21 21 21 20 20 20 20 20 20 20 20 20 20 20 19 19 19 19 19 18 18 19 19 19
22 21 20 20 20 20 21 21 21 22 22 22 22 22 21 21 21 21 21 21 21 21 21 20 20 20 20 20 20 20 20 20 19 19 19 19 19 18 18 18 19 19 18
22 21 20 19 20 19 20 20 20 20 21 21 21 21 21 21 21 21 20 20 20 20 20 20 20 20 20 20 20 20 20 20 19 19 18 19 19 18 18 18 18 18 18
21 19 19 19 19 19 19 19 19 19 19 19 20 20 20 20 20 20 20 20 20 20 20 20 20 20 20 20 20 20 19 19 19 19 19 21 20 19 18 18 18 18 18
18 18 18 19 19 19 19 19 19 19 19 19 19 19 19 19 19 20 20 20 20 20 20 19 19 19 19 20 20 19 19 19 19 19 21 21 21 19 18 18 18 18 18
18 17 18 19 19 19 19 19 19 19 19 19 19 19 19 19 19 19 19 19 19 19 19 19 19 19 19 20 19 19 19 19 19 20 21 21 21 19 18 18 18 18 18
17 16 17 18 18 18 18 18 19 19 19 19 19 19 19 19 19 19 19 20 20 19 19 19 19 19 19 19 19 19 19 19 19 20 21 21 21 19 17 18 18 18 17
16 16 16 18 18 18 18 18 19 19 19 19 19 19 19 19 19 19 19 19 20 20 20 19 19 19 19 19 19 19 19 19 19 20 21 21 20 18 17 18 18 18 17
16 16 16 17 18 19 19 19 18 18 19 19 19 19 19 19 19 19 19 19 19 19 20 20 20 19 18 19 19 19 19 19 19 20 20 21 20 18 18 18 17 17 17
15 15 15 15 17 17 17 19 19 19 19 19 19 19 20 20 19 19 19 19 19 19 19 19 19 19 19 18 18 19 18 18 18 20 20 21 20 19 18 18 17 16 17
15 14 14 15 16 15 15 17 18 19 19 19 18 19 18 17 18 19 19 19 19 19 19 19 19 19 19 19 19 18 18 19 20 20 21 21 19 18 18 17 18 17 16
16 14 14 14 15 14 15 15 14 14 14 14 15 15 15 15 16 18 17 18 19 19 19 19 19 19 19 20 21 19 18 20 21 20 21 20 19 18 18 18 18 17 16
15 14 13 12 12 13 13 13 14 14 13 13 13 13 13 14 15 16 17 18 18 19 20 21 20 20 21 21 22 22 20 20 21 21 21 19 18 18 18 18 17 17 16
15 14 13 12 11 11 12 13 13 13 12 13 12 11 12 14 14 14 15 15 17 17 17 18 21 21 21 21 21 20 20 18 19 20 21 19 18 18 18 18 18 17 16
14 13 12 11 11 11 12 12 11 12 12 11 11 11 10 12 12 12 13 14 15 16 17 16 16 18 21 21 21 19 19 19 18 19 20 20 19 18 18 18 16 17 17
13 12 11 11 10 10 11 10 11 11 11 11 11 10 9 10 10 11 12 13 14 14 14 14 14 15 16 19 21 19 18 19 18 18 20 21 19 18 18 18 16 16 16
12 11 10 10 9 10 10 10 11 11 11 11 11 10 9 9 9 10 11 12 12 12 12 14 15 15 15 16 16 18 17 17 18 19 20 20 21 18 18 17 17 16 16
12 11 10 10 9 9 9 10 10 10 10 10 10 10 8 8 8 9 11 11 11 11 12 13 14 15 16 14 15 16 16 16 18 19 20 20 21 21 19 18 17 17 17
10 10 10 9 9 8 9 9 9 9 10 10 10 10 8 8 8 8 10 10 9 11 10 10 12 13 14 16 14 15 17 16 17 19 20 20 20 20 21 18 17 17 17
10 9 9 9 8 8 9 10 11 11 10 10 10 9 8 8 8 8 9 9 9 10 10 9 8 9 11 13 15 15 15 16 16 16 18 19 20 20 20 20 17 16 16
10 9 9 9 8 9 10 10 10 10 10 10 9 8 7 7 7 8 9 8 8 8 8 8 8 7 9 12 14 16 17 17 16 16 16 17 19 20 20 19 17 17 16
10 9 9 9 8 8 9 8 8 8 9 9 9 8 8 7 7 7 6 6 6 6 6 7 8 7 8 10 13 14 17 19 19 18 16 16 16 19 20 18 18 18 17
10 8 8 8 8 7 6 8 9 10 10 10 9 9 7 7 6 6 5 5 5 5 6 6 7 7 7 7 8 10 16 20 22 21 17 16 16 16 18 19 18 18 18
9 8 8 7 7 7 6 7 7 8 9 8 8 8 7 7 6 5 5 4 4 5 5 5 6 6 6 7 8 9 12 13 13 17 19 17 16 16 16 17 18 17 18
8 8 7 7 7 6 6 6 7 7 7 8 8 7 7 7 6 5 4 4 4 4 4 4 5 5 6 6 7 8 8 10 13 14 15 16 18 16 15 15 16 16 17
8 8 7 7 7 6 6 6 5 5 6 7 7 7 7 6 6 5 4 4 3 3 3 4 4 4 5 5 6 7 8 9 12 16 18 17 18 17 16 15 16 16 16

GFSSE_925_temp_165.txt.gz
Temp
23 21 19 20 20 21 21 21 22 21 21 22 22 22 21 21 21 21 21 21 20 20 20 20 20 20 20 20 20 20 20 20 20 20 19 19 19 19 19 19 19 20 19
23 21 20 19 20 21 21 21 21 21 21 21 21 21 21 21 21 21 21 21 20 20 20 20 20 20 20 20 20 20 20 20 20 20 19 19 19 19 19 19 18 19 19
21 21 19 19 19 19 20 20 20 20 21 21 21 20 20 20 20 20 20 20 20 20 20 20 20 20 20 20 20 20 20 20 20 20 20 20 20 19 19 19 18 18 18
20 20 19 19 19 19 19 19 20 20 20 20 20 20 20 20 20 20 20 20 20 20 20 19 19 20 20 20 20 20 20 20 20 20 19 20 20 20 19 18 18 18 18
20 19 17 18 19 19 19 19 19 19 19 19 20 20 20 20 20 20 20 20 20 20 19 19 19 19 20 20 20 20 20 20 20 19 20 21 22 20 19 18 18 18 17
20 18 18 19 19 19 19 19 19 19 19 19 19 19 19 19 20 19 20 20 20 20 20 19 19 19 19 19 19 19 19 20 19 20 21 21 22 20 19 18 18 18 17
20 18 18 19 19 19 18 18 18 19 19 19 19 19 19 19 19 19 19 19 19 20 20 20 19 19 19 19 19 19 19 19 19 21 22 21 21 20 19 18 18 17 17
19 18 18 18 18 18 18 18 18 18 19 19 19 19 19 19 19 19 19 19 19 19 19 20 19 19 19 19 19 19 19 19 19 20 21 22 21 20 19 18 18 17 17
18 18 17 17 17 18 19 19 19 18 18 19 19 19 19 19 19 19 20 19 19 19 19 19 19 19 19 19 19 19 18 19 19 20 21 21 20 20 19 18 18 18 17
18 18 17 17 16 16 16 19 19 19 19 19 19 19 19 19 19 19 20 19 19 19 19 19 19 19 19 19 19 19 19 18 18 20 22 21 20 20 19 18 18 17 17
18 18 17 17 16 16 17 17 16 16 17 17 17 18 18 18 18 19 18 19 19 19 19 19 19 19 19 19 19 20 19 19 20 20 22 22 21 20 19 18 18 17 17
19 18 17 16 15 16 18 16 17 17 17 16 15 15 17 16 18 17 19 19 20 19 19 20 21 20 19 19 22 21 19 20 22 22 21 22 21 20 19 18 18 18 18
19 17 17 16 15 15 16 16 17 17 16 16 15 14 15 16 17 18 18 20 19 20 20 20 20 20 21 22 23 22 21 21 22 23 24 22 21 20 19 18 18 18 17
19 17 16 15 14 14 15 16 16 16 15 15 15 13 14 16 16 16 17 17 18 19 19 20 19 19 20 21 22 22 23 23 23 23 23 22 21 20 19 18 18 18 17
18 17 16 15 14 14 15 15 14 15 15 14 15 13 12 13 14 14 15 16 17 18 18 18 19 18 17 18 19 20 21 20 21 21 22 22 21 20 20 18 17 18 17
17 16 15 14 13 13 14 14 14 15 14 15 14 13 12 12 13 13 14 15 16 16 16 15 16 16 17 16 17 19 19 20 21 20 21 21 21 20 20 19 18 18 16
17 15 14 14 13 13 14 14 14 15 14 14 14 13 12 11 11 12 14 15 15 14 14 15 16 17 17 18 18 17 18 19 18 20 20 20 22 20 20 20 18 17 17
17 15 14 14 13 12 13 13 13 14 13 14 13 13 12 11 11 11 13 14 13 13 14 14 14 15 16 17 18 19 18 17 17 18 19 20 21 22 20 20 19 18 17
15 15 14 13 12 12 12 13 13 13 14 13 13 13 11 11 10 10 12 13 12 13 14 13 13 12 13 14 16 17 18 18 17 18 19 18 19 20 22 20 19 19 18
14 13 13 13 12 12 13 14 15 15 14 13 13 12 10 10 10 10 11 11 11 12 12 11 10 11 11 12 14 16 17 18 18 18 19 19 18 19 20 21 20 18 19
13 14 13 13 12 13 14 14 14 14 13 13 12 11 11 10 10 10 10 10 10 10 9 10 9 9 10 11 12 15 17 18 18 18 19 19 18 19 19 20 18 18 17
14 13 13 13 12 12 13 12 12 12 13 13 12 11 11 10 9 9 9 9 8 8 8 9 8 8 9 9 10 11 16 19 21 21 20 20 19 18 18 19 19 18 18
14 13 13 12 12 11 10 13 12 13 14 14 12 12 11 10 9 8 8 7 7 6 7 7 7 7 8 8 9 9 13 18 16 18 18 21 20 18 17 18 19 18 18
13 12 12 11 11 10 10 11 10 12 13 12 12 11 10 10 9 8 8 7 6 6 5 5 6 5 6 7 8 9 9 10 11 13 16 16 16 16 16 16 18 18 18
12 12 11 11 11 10 9 9 10 10 11 11 11 10 10 10 9 8 7 7 6 5 5 5 5 5 5 6 6 7 8 8 9 12 14 17 18 17 16 16 17 17 18
11 11 11 11 11 9 9 9 9 9 9 9 10 10 10 9 9 8 7 6 5 5 4 4 4 4 4 5 5 6 6 7 9 10 13 14 17 18 18 17 16 17 17